GFSGL_850_temp_000.txt.gz
Temp
4 4 3 2 2 1 1 0 -1 -1 -2 -3 -3 -4 -4 -4 -4 -4 -3 -3 -3 -2 -1 -1 -0 -0 -0 0 0 0 0 1 1 1 2 2 2 2 2 3 4 4 6
3 3 2 2 1 0 -1 -1 -2 -3 -3 -4 -4 -4 -4 -4 -4 -4 -4 -4 -4 -3 -3 -2 -1 -1 -1 -1 -1 -0 -0 -0 0 1 1 1 0 2 3 4 3 3 4
2 2 2 1 -0 -2 -2 -2 -3 -4 -4 -4 -5 -5 -5 -5 -5 -5 -5 -5 -5 -4 -4 -3 -3 -2 -2 -2 -1 -1 -1 -1 -0 -0 1 1 1 -0 1 2 1 2 2
1 1 0 -1 -1 -2 -2 -2 -3 -4 -4 -5 -5 -5 -5 -6 -6 -6 -6 -6 -6 -6 -6 -6 -5 -5 -4 -3 -2 -2 -2 -1 -1 -0 0 1 1 0 -0 1 1 1 1
0 0 -1 -1 -1 -2 -2 -3 -3 -4 -5 -5 -5 -6 -6 -6 -6 -6 -7 -7 -8 -8 -8 -7 -7 -7 -6 -6 -5 -4 -3 -2 -2 -1 -0 0 1 0 -1 -1 -0 1 1
1 -0 -1 -1 -2 -2 -2 -4 -5 -5 -5 -5 -6 -6 -7 -7 -7 -8 -9 -9 -9 -9 -9 -8 -8 -7 -7 -7 -6 -5 -5 -4 -4 -2 -1 -0 1 1 -1 -1 -1 0 1
-0 -1 -1 -2 -2 -2 -3 -5 -5 -5 -6 -6 -6 -7 -7 -8 -8 -9 -10 -10 -9 -9 -9 -8 -8 -7 -7 -7 -7 -7 -6 -6 -5 -4 -3 -1 0 1 1 -1 -1 -1 0
-1 -1 -2 -2 -3 -3 -5 -5 -6 -6 -7 -7 -7 -8 -8 -9 -9 -9 -9 -10 -9 -9 -9 -9 -8 -8 -8 -7 -7 -7 -7 -6 -6 -6 -4 -3 -0 1 1 -1 -1 -1 -1
-1 -2 -2 -2 -3 -5 -6 -6 -7 -7 -8 -8 -8 -9 -9 -9 -8 -8 -8 -9 -9 -9 -9 -8 -8 -8 -8 -8 -8 -8 -7 -7 -6 -6 -5 -4 -3 -2 -1 -1 -2 -2 -1
-2 -2 -2 -3 -4 -6 -6 -7 -7 -8 -8 -9 -9 -10 -10 -8 -7 -7 -7 -8 -9 -9 -8 -8 -8 -8 -7 -8 -8 -8 -7 -7 -6 -6 -5 -5 -5 -3 -2 -2 -1 -2 -2
-2 -2 -3 -4 -6 -6 -7 -8 -8 -9 -10 -10 -10 -9 -9 -8 -8 -7 -7 -8 -8 -8 -8 -7 -7 -7 -7 -7 -7 -7 -7 -7 -6 -6 -6 -6 -5 -5 -4 -3 -2 -2 -1
-2 -3 -4 -5 -6 -7 -8 -8 -9 -9 -10 -10 -10 -9 -8 -8 -7 -8 -8 -8 -8 -8 -8 -8 -7 -7 -7 -7 -7 -7 -7 -7 -7 -6 -6 -6 -5 -5 -4 -4 -3 -2 -2
-3 -4 -5 -6 -7 -8 -9 -9 -9 -9 -10 -10 -10 -9 -8 -8 -8 -8 -9 -9 -9 -8 -8 -8 -8 -8 -7 -6 -7 -7 -7 -7 -7 -6 -5 -5 -5 -5 -5 -4 -3 -3 -3
-4 -5 -5 -7 -7 -8 -9 -9 -9 -10 -10 -10 -10 -9 -9 -8 -8 -8 -9 -9 -9 -9 -9 -9 -9 -8 -7 -6 -6 -6 -7 -7 -7 -6 -6 -5 -5 -5 -5 -4 -4 -4 -3
-5 -5 -7 -8 -8 -9 -10 -10 -10 -11 -11 -11 -10 -10 -10 -9 -9 -9 -9 -9 -9 -9 -9 -9 -9 -8 -8 -7 -6 -7 -7 -7 -7 -6 -5 -5 -5 -5 -4 -4 -4 -4 -3
-6 -7 -8 -7 -9 -10 -10 -10 -10 -11 -10 -10 -10 -10 -9 -10 -9 -9 -10 -10 -9 -9 -9 -9 -9 -9 -9 -9 -7 -6 -7 -7 -6 -6 -6 -6 -5 -5 -5 -5 -4 -4 -4
-6 -7 -7 -8 -10 -10 -11 -11 -11 -11 -11 -10 -10 -10 -9 -10 -9 -8 -9 -9 -9 -9 -9 -10 -10 -10 -10 -10 -9 -9 -8 -7 -7 -7 -6 -6 -6 -6 -6 -7 -7 -7 -7
-7 -7 -8 -10 -11 -11 -11 -11 -11 -11 -11 -11 -10 -10 -9 -9 -9 -8 -8 -9 -9 -9 -9 -10 -10 -10 -11 -11 -11 -10 -10 -9 -8 -8 -8 -8 -8 -8 -9 -9 -9 -9 -9
-7 -8 -8 -10 -11 -12 -11 -11 -11 -11 -11 -11 -11 -9 -9 -9 -9 -9 -8 -9 -9 -9 -10 -10 -10 -11 -11 -11 -11 -11 -11 -11 -10 -10 -10 -10 -10 -10 -10 -10 -10 -10 -10
-9 -9 -8 -10 -12 -11 -11 -12 -12 -12 -12 -12 -12 -11 -10 -9 -9 -9 -9 -10 -10 -10 -10 -10 -10 -9 -10 -11 -11 -11 -11 -11 -11 -11 -11 -11 -11 -10 -10 -10 -10 -10 -11
-10 -10 -9 -11 -12 -12 -12 -12 -12 -12 -12 -12 -12 -11 -10 -10 -10 -10 -10 -10 -10 -10 -10 -10 -10 -11 -10 -10 -10 -10 -10 -11 -11 -10 -10 -10 -9 -9 -10 -11 -11 -12 -12
-9 -9 -11 -12 -12 -12 -13 -13 -13 -13 -13 -13 -11 -11 -11 -10 -10 -10 -10 -10 -10 -10 -10 -10 -10 -10 -10 -10 -9 -9 -10 -10 -11 -10 -10 -10 -12 -12 -12 -12 -12 -12 -11
-9 -10 -12 -12 -13 -13 -13 -13 -13 -13 -13 -13 -12 -12 -11 -11 -11 -11 -11 -11 -10 -10 -10 -10 -10 -10 -10 -10 -10 -10 -10 -10 -10 -10 -10 -11 -11 -11 -11 -11 -12 -12 -12
-9 -10 -11 -12 -13 -13 -13 -13 -14 -14 -14 -14 -13 -12 -12 -12 -12 -12 -11 -11 -11 -11 -11 -11 -11 -10 -10 -10 -10 -10 -10 -10 -11 -11 -10 -10 -11 -11 -11 -12 -12 -12 -12
-9 -10 -11 -11 -13 -14 -14 -14 -14 -14 -14 -14 -14 -13 -13 -13 -13 -13 -12 -12 -12 -12 -12 -12 -12 -11 -11 -11 -11 -11 -11 -11 -11 -11 -12 -12 -12 -13 -14 -14 -14 -15 -14
-10 -10 -11 -12 -13 -14 -14 -14 -15 -15 -15 -15 -14 -14 -14 -14 -14 -13 -13 -13 -13 -13 -12 -12 -13 -12 -12 -12 -12 -12 -12 -12 -12 -12 -12 -13 -14 -14 -15 -14 -15 -16 -15

GFSGL_850_temp_003.txt.gz
Temp
6 4 2 2 1 3 2 0 0 0 -0 -1 -1 -1 -1 -2 -2 -2 -2 -2 -2 -2 -2 -1 -1 -1 -0 0 0 0 0 1 2 2 2 3 3 4 3 3 3 4 5
4 2 1 1 2 1 0 -0 -0 -1 -1 -2 -2 -2 -2 -2 -2 -2 -2 -2 -2 -2 -2 -2 -2 -1 -1 -0 -0 -0 -0 0 1 1 2 2 2 3 3 2 1 3 4
3 2 1 0 0 -0 -1 -1 -1 -2 -2 -2 -2 -3 -3 -3 -3 -3 -3 -3 -3 -3 -3 -3 -3 -3 -2 -2 -1 -1 -1 -0 0 0 1 1 1 2 3 2 1 1 4
2 2 1 0 -0 -0 -1 -2 -2 -2 -2 -3 -3 -3 -3 -4 -4 -4 -4 -4 -4 -4 -5 -5 -5 -5 -4 -4 -3 -3 -2 -1 -1 -0 0 0 1 1 2 2 1 1 1
2 1 -0 -0 -0 -1 -2 -2 -2 -3 -3 -3 -4 -4 -4 -4 -4 -4 -5 -5 -6 -6 -7 -7 -7 -7 -7 -6 -6 -5 -4 -3 -2 -1 -1 -1 -0 0 1 2 -0 -1 0
1 0 -0 -0 -1 -1 -2 -2 -3 -3 -3 -4 -4 -4 -4 -5 -5 -6 -7 -8 -8 -9 -9 -9 -8 -8 -8 -7 -7 -7 -7 -6 -5 -4 -3 -1 -1 -0 1 1 0 -1 -1
-0 -0 -1 -1 -2 -2 -2 -3 -3 -3 -4 -4 -5 -5 -5 -6 -6 -7 -8 -9 -9 -9 -9 -9 -8 -8 -8 -7 -7 -7 -7 -6 -6 -5 -5 -4 -2 -1 0 1 0 -0 -2
-0 -0 -1 -1 -2 -3 -3 -3 -4 -4 -5 -5 -5 -6 -7 -7 -8 -8 -9 -9 -9 -9 -9 -9 -8 -8 -8 -7 -7 -7 -7 -6 -6 -6 -6 -5 -4 -3 -2 -2 -0 -1 -1
0 -1 -1 -2 -3 -3 -3 -4 -4 -5 -5 -6 -7 -8 -8 -9 -9 -8 -8 -8 -9 -9 -9 -9 -8 -8 -8 -8 -8 -7 -7 -7 -6 -6 -6 -6 -5 -2 -2 -3 -2 -1 -2
-1 -2 -2 -3 -3 -4 -4 -5 -5 -6 -6 -7 -9 -9 -9 -10 -8 -7 -7 -7 -8 -8 -7 -7 -7 -7 -7 -7 -8 -8 -8 -7 -7 -7 -6 -6 -5 -4 -2 -4 -4 -2 -2
-2 -3 -3 -3 -4 -5 -5 -6 -6 -7 -8 -8 -9 -9 -9 -8 -8 -8 -8 -8 -8 -8 -8 -8 -7 -7 -7 -7 -7 -7 -7 -7 -7 -7 -6 -6 -5 -4 -3 -4 -4 -3 -2
-3 -3 -3 -4 -5 -5 -6 -6 -7 -8 -8 -9 -9 -9 -9 -8 -8 -8 -8 -8 -8 -8 -8 -8 -8 -8 -8 -7 -7 -7 -7 -7 -7 -7 -6 -6 -5 -5 -5 -4 -4 -3 -2
-3 -4 -4 -5 -6 -6 -7 -7 -8 -7 -8 -9 -10 -9 -9 -9 -8 -9 -9 -9 -9 -9 -8 -8 -8 -8 -8 -8 -7 -7 -7 -7 -7 -7 -6 -6 -5 -5 -4 -4 -4 -4 -3
-4 -5 -6 -6 -6 -7 -7 -8 -8 -9 -9 -9 -10 -10 -10 -9 -9 -9 -9 -9 -9 -9 -9 -8 -8 -8 -8 -7 -6 -6 -6 -7 -7 -7 -7 -6 -5 -5 -5 -4 -4 -4 -4
-5 -6 -6 -7 -7 -8 -8 -8 -9 -9 -10 -11 -11 -10 -10 -10 -10 -9 -9 -9 -9 -9 -8 -8 -8 -8 -8 -7 -6 -6 -7 -7 -7 -7 -6 -6 -5 -5 -5 -5 -5 -5 -4
-5 -7 -7 -8 -8 -8 -8 -9 -9 -10 -10 -10 -10 -10 -11 -10 -10 -9 -9 -9 -9 -9 -8 -9 -9 -9 -9 -8 -6 -6 -6 -7 -7 -6 -5 -5 -5 -5 -5 -5 -5 -5 -5
-5 -6 -7 -8 -9 -9 -9 -10 -10 -10 -10 -10 -10 -10 -10 -10 -9 -9 -8 -8 -9 -9 -9 -9 -9 -9 -9 -9 -8 -7 -6 -6 -6 -6 -6 -6 -6 -6 -5 -6 -6 -6 -6
-6 -7 -9 -9 -9 -10 -10 -10 -10 -10 -10 -10 -10 -11 -10 -10 -9 -9 -9 -9 -9 -9 -9 -9 -10 -10 -10 -10 -10 -9 -8 -7 -6 -6 -6 -6 -7 -7 -6 -7 -7 -7 -7
-7 -8 -8 -9 -10 -10 -10 -10 -10 -11 -11 -11 -11 -10 -9 -10 -9 -9 -9 -9 -9 -9 -9 -9 -10 -10 -10 -10 -11 -10 -9 -9 -9 -8 -8 -8 -8 -8 -8 -8 -8 -8 -8
-7 -8 -9 -10 -10 -10 -10 -10 -11 -11 -11 -11 -11 -11 -10 -10 -10 -9 -9 -9 -10 -10 -10 -10 -10 -10 -10 -10 -10 -11 -10 -10 -10 -10 -9 -9 -9 -9 -9 -9 -9 -10 -10
-8 -9 -10 -10 -10 -10 -11 -11 -11 -11 -11 -11 -12 -12 -11 -11 -11 -10 -10 -10 -10 -10 -10 -10 -10 -10 -10 -10 -11 -11 -11 -11 -11 -10 -10 -10 -10 -10 -10 -10 -10 -10 -10
-9 -10 -10 -10 -11 -11 -11 -11 -12 -12 -12 -12 -12 -12 -11 -11 -11 -11 -11 -10 -10 -10 -10 -11 -11 -11 -11 -11 -11 -11 -11 -11 -11 -11 -11 -11 -11 -11 -11 -11 -11 -11 -11
-10 -11 -11 -10 -11 -11 -11 -12 -12 -13 -12 -12 -13 -12 -12 -12 -12 -12 -11 -11 -11 -10 -11 -11 -11 -11 -11 -11 -11 -11 -11 -11 -11 -11 -11 -11 -12 -12 -12 -12 -12 -13 -13
-10 -11 -11 -11 -11 -12 -12 -12 -12 -13 -13 -13 -13 -13 -13 -13 -12 -12 -12 -12 -12 -11 -11 -11 -11 -11 -11 -11 -11 -11 -11 -11 -11 -11 -11 -11 -12 -12 -12 -12 -12 -13 -13
-9 -11 -11 -12 -12 -12 -12 -13 -13 -13 -13 -14 -14 -14 -14 -13 -13 -13 -13 -13 -12 -12 -12 -12 -12 -12 -12 -12 -12 -12 -12 -11 -11 -12 -11 -12 -12 -12 -12 -12 -13 -13 -13
-9 -11 -12 -12 -12 -13 -13 -13 -13 -14 -14 -14 -15 -15 -14 -14 -14 -14 -13 -13 -13 -13 -13 -13 -13 -13 -13 -12 -13 -13 -13 -12 -12 -13 -13 -13 -14 -14 -14 -14 -14 -15 -15

GFSGL_850_temp_006.txt.gz
Temp
8 8 7 7 4 3 2 1 -1 -2 -2 -2 -1 -0 -0 -1 -1 -1 -2 -2 -2 -2 -2 -2 -2 -2 -2 -1 -1 -1 -1 -0 0 0 1 1 2 2 3 3 2 3 3
7 6 5 4 2 2 1 0 -1 -2 -2 -1 -1 -1 -1 -2 -2 -2 -2 -2 -3 -3 -3 -3 -3 -2 -2 -2 -2 -2 -1 -1 -0 -0 -0 -0 1 1 2 2 2 3 2
5 4 3 2 1 1 0 -0 -1 -2 -1 -1 -2 -2 -2 -2 -3 -3 -3 -3 -3 -3 -3 -4 -4 -3 -3 -3 -3 -3 -2 -2 -2 -1 -1 -1 -0 1 1 1 2 2 1
4 3 2 1 1 0 -0 -2 -2 -2 -2 -2 -2 -3 -3 -3 -4 -4 -4 -4 -4 -4 -4 -4 -5 -5 -5 -5 -5 -4 -4 -4 -4 -3 -2 -1 -1 -0 0 1 1 1 1
3 3 2 1 0 -1 -2 -2 -2 -2 -2 -3 -3 -3 -4 -4 -4 -4 -4 -4 -5 -5 -5 -5 -6 -6 -6 -6 -6 -6 -6 -6 -5 -5 -4 -3 -2 -1 -0 0 0 1 1
3 2 1 -1 -1 -2 -2 -2 -2 -2 -3 -3 -3 -4 -4 -5 -5 -5 -5 -6 -6 -7 -7 -8 -8 -8 -8 -8 -8 -7 -7 -7 -7 -7 -6 -5 -4 -3 -1 -1 -0 0 0
1 -0 -1 -2 -2 -2 -2 -2 -2 -3 -3 -4 -4 -5 -5 -5 -6 -7 -7 -7 -8 -8 -8 -8 -9 -9 -8 -8 -8 -7 -7 -7 -7 -7 -7 -7 -6 -5 -3 -2 -1 -1 -1
-1 -1 -1 -1 -1 -2 -2 -3 -3 -3 -4 -5 -5 -6 -6 -7 -7 -8 -8 -8 -8 -8 -8 -8 -8 -8 -8 -8 -8 -8 -8 -7 -7 -7 -7 -6 -6 -6 -4 -3 -3 -2 -2
-1 0 -0 -1 -2 -2 -3 -3 -4 -4 -5 -5 -6 -6 -7 -8 -9 -8 -8 -8 -8 -8 -7 -7 -7 -7 -7 -7 -8 -8 -8 -7 -7 -7 -7 -6 -6 -6 -5 -4 -4 -4 -3
0 -0 -1 -2 -2 -3 -3 -4 -5 -5 -6 -6 -7 -8 -8 -9 -8 -8 -8 -8 -8 -7 -8 -8 -8 -8 -8 -7 -7 -8 -8 -7 -7 -7 -7 -7 -6 -6 -6 -6 -5 -5 -4
-0 -1 -2 -3 -3 -4 -4 -5 -5 -6 -7 -7 -8 -8 -9 -9 -9 -9 -9 -9 -9 -9 -8 -8 -8 -8 -8 -8 -7 -7 -7 -7 -7 -7 -7 -7 -7 -6 -6 -5 -6 -6 -4
-1 -2 -3 -3 -4 -5 -5 -6 -6 -7 -7 -8 -8 -9 -9 -9 -9 -9 -9 -9 -9 -9 -9 -9 -8 -8 -8 -8 -8 -8 -7 -7 -7 -7 -7 -7 -7 -7 -6 -5 -5 -4 -4
-2 -3 -4 -4 -5 -6 -6 -7 -7 -8 -8 -9 -9 -10 -10 -10 -10 -10 -9 -9 -9 -9 -9 -9 -8 -8 -8 -8 -8 -8 -8 -8 -8 -8 -7 -7 -6 -6 -6 -5 -5 -5 -4
-3 -4 -4 -5 -6 -6 -7 -8 -8 -8 -9 -9 -10 -10 -10 -10 -10 -9 -9 -9 -8 -9 -8 -8 -8 -8 -8 -8 -7 -6 -6 -6 -7 -8 -7 -7 -6 -6 -6 -5 -5 -4 -4
-4 -4 -5 -6 -6 -7 -8 -8 -8 -9 -10 -10 -10 -10 -10 -10 -10 -9 -9 -8 -8 -9 -8 -9 -9 -9 -9 -8 -6 -6 -6 -7 -7 -8 -7 -7 -7 -6 -5 -5 -5 -5 -5
-4 -5 -6 -6 -7 -8 -8 -9 -9 -9 -10 -10 -10 -10 -10 -10 -10 -9 -9 -8 -9 -9 -9 -9 -10 -9 -9 -9 -7 -6 -7 -7 -7 -7 -7 -6 -6 -5 -5 -5 -5 -5 -5
-5 -6 -6 -8 -8 -9 -9 -10 -10 -10 -10 -10 -10 -10 -10 -10 -10 -9 -9 -8 -8 -9 -9 -10 -10 -10 -10 -9 -8 -7 -6 -7 -7 -6 -6 -6 -6 -5 -5 -6 -6 -6 -6
-5 -6 -8 -8 -8 -9 -10 -10 -10 -10 -10 -10 -10 -11 -10 -10 -10 -10 -9 -9 -9 -9 -9 -10 -10 -10 -10 -10 -9 -8 -8 -7 -6 -6 -6 -6 -6 -5 -5 -6 -7 -6 -6
-7 -8 -8 -8 -9 -10 -10 -10 -10 -10 -11 -11 -11 -10 -10 -10 -11 -10 -9 -10 -10 -10 -10 -10 -10 -10 -10 -10 -10 -9 -9 -8 -8 -7 -6 -6 -7 -7 -7 -7 -7 -7 -7
-7 -8 -8 -9 -10 -10 -10 -10 -11 -11 -11 -11 -11 -12 -11 -11 -11 -11 -10 -10 -10 -10 -11 -11 -10 -10 -10 -11 -11 -10 -10 -9 -9 -9 -8 -8 -8 -7 -7 -8 -8 -8 -8
-8 -8 -9 -9 -10 -10 -10 -11 -11 -11 -11 -11 -12 -12 -12 -12 -12 -12 -12 -11 -11 -11 -11 -11 -11 -11 -11 -11 -11 -11 -10 -10 -10 -10 -10 -9 -9 -9 -9 -9 -9 -9 -9
-9 -9 -10 -10 -10 -10 -11 -11 -11 -12 -12 -12 -12 -12 -12 -12 -12 -12 -12 -12 -12 -11 -11 -11 -11 -11 -11 -11 -11 -11 -11 -11 -11 -11 -11 -11 -10 -10 -10 -10 -10 -10 -10
-9 -10 -10 -10 -10 -11 -11 -12 -12 -12 -12 -12 -13 -13 -13 -13 -13 -13 -13 -13 -12 -12 -11 -11 -11 -11 -11 -11 -11 -11 -12 -11 -11 -11 -11 -11 -11 -11 -11 -11 -11 -12 -12
-9 -9 -10 -11 -11 -11 -11 -12 -12 -13 -13 -13 -13 -14 -14 -13 -13 -13 -13 -13 -12 -12 -12 -12 -12 -12 -12 -12 -12 -12 -11 -12 -11 -11 -11 -11 -12 -11 -12 -12 -12 -12 -12
-9 -9 -10 -11 -11 -12 -12 -12 -12 -13 -13 -14 -14 -14 -14 -14 -14 -13 -13 -13 -13 -13 -13 -12 -12 -12 -12 -12 -12 -12 -12 -12 -12 -12 -12 -12 -12 -12 -12 -12 -12 -12 -13
-9 -9 -10 -11 -12 -12 -13 -13 -13 -13 -14 -14 -14 -15 -15 -15 -15 -14 -14 -14 -13 -13 -13 -13 -13 -12 -12 -12 -12 -13 -12 -12 -12 -13 -13 -13 -13 -14 -13 -13 -13 -13 -13

GFSGL_850_temp_009.txt.gz
Temp
8 8 8 7 7 6 5 3 3 2 0 -0 -1 -2 -2 -2 -1 -1 -2 -2 -2 -2 -2 -3 -3 -3 -3 -2 -2 -2 -2 -2 -2 -2 -2 -1 -1 -0 0 1 2 2 3
7 7 6 6 5 3 3 2 2 1 0 -1 -2 -2 -2 -1 -2 -2 -2 -3 -3 -3 -3 -3 -3 -3 -3 -3 -3 -3 -3 -3 -3 -3 -3 -2 -2 -1 -1 -0 1 1 2
6 6 5 4 3 2 1 1 0 -0 -1 -1 -2 -2 -2 -2 -2 -3 -3 -4 -4 -4 -4 -4 -4 -4 -4 -4 -4 -4 -4 -4 -4 -4 -4 -4 -3 -2 -2 -1 -0 0 1
5 5 4 3 2 1 0 -0 -1 -1 -2 -2 -2 -2 -2 -3 -3 -4 -4 -4 -4 -4 -4 -5 -5 -5 -5 -5 -5 -5 -5 -5 -5 -5 -5 -5 -5 -4 -3 -2 -1 -0 0
4 3 2 1 1 0 -0 -1 -2 -2 -2 -2 -2 -3 -3 -4 -4 -4 -5 -5 -5 -5 -5 -5 -5 -5 -6 -6 -6 -6 -7 -7 -7 -7 -6 -6 -6 -5 -4 -3 -2 -1 -0
3 3 2 1 1 0 -2 -2 -3 -2 -2 -3 -3 -3 -4 -4 -5 -5 -6 -6 -6 -7 -7 -7 -7 -7 -7 -7 -7 -7 -8 -8 -9 -8 -8 -7 -7 -6 -6 -4 -3 -2 -1
1 -0 -0 0 -1 -2 -2 -2 -2 -2 -3 -3 -3 -4 -5 -6 -6 -6 -7 -7 -8 -8 -8 -8 -7 -7 -7 -7 -7 -7 -8 -8 -8 -8 -8 -8 -8 -7 -7 -6 -4 -4 -3
-0 -1 -1 -1 -2 -2 -2 -2 -2 -3 -3 -4 -5 -6 -6 -6 -7 -8 -8 -9 -8 -8 -8 -7 -7 -7 -7 -7 -7 -7 -7 -7 -7 -8 -8 -7 -7 -7 -7 -7 -6 -5 -4
-0 -1 -1 -1 -1 -1 -2 -3 -3 -4 -4 -5 -6 -6 -7 -7 -8 -9 -9 -9 -8 -8 -8 -8 -8 -8 -8 -8 -8 -8 -8 -8 -7 -7 -7 -7 -7 -7 -7 -7 -7 -7 -6
-0 -0 -1 -1 -1 -3 -3 -3 -4 -5 -6 -6 -7 -8 -8 -8 -9 -9 -9 -9 -9 -9 -9 -9 -9 -9 -8 -8 -8 -8 -8 -8 -7 -7 -7 -7 -7 -7 -7 -7 -6 -7 -7
-1 -1 -1 -2 -3 -3 -4 -4 -5 -6 -7 -8 -8 -8 -9 -9 -9 -9 -10 -9 -9 -9 -9 -9 -9 -9 -9 -9 -8 -8 -8 -8 -8 -8 -7 -7 -7 -7 -7 -7 -7 -6 -6
-1 -2 -2 -3 -4 -4 -5 -6 -6 -7 -8 -8 -9 -9 -9 -9 -10 -10 -9 -9 -9 -9 -9 -9 -8 -8 -8 -8 -8 -8 -8 -8 -8 -8 -8 -8 -7 -7 -7 -6 -6 -7 -7
-2 -3 -3 -4 -4 -5 -6 -6 -7 -8 -9 -9 -10 -10 -10 -10 -10 -9 -9 -9 -8 -8 -9 -9 -9 -8 -8 -8 -7 -7 -7 -7 -8 -8 -8 -8 -7 -7 -7 -7 -7 -7 -6
-3 -4 -4 -5 -5 -6 -6 -8 -8 -9 -9 -10 -10 -10 -10 -10 -10 -9 -9 -9 -8 -9 -9 -9 -9 -9 -9 -9 -8 -7 -6 -6 -6 -7 -7 -7 -8 -7 -7 -7 -6 -6 -6
-4 -4 -5 -6 -6 -7 -8 -9 -9 -9 -10 -10 -10 -10 -10 -10 -10 -10 -9 -9 -8 -9 -9 -9 -10 -10 -9 -8 -7 -6 -6 -7 -7 -7 -7 -8 -8 -7 -7 -6 -6 -5 -5
-4 -5 -6 -6 -7 -8 -8 -9 -9 -10 -10 -10 -10 -10 -10 -10 -10 -10 -9 -9 -9 -9 -9 -10 -10 -10 -10 -9 -8 -7 -7 -7 -7 -7 -7 -7 -7 -7 -6 -6 -6 -5 -5
-5 -6 -7 -7 -8 -8 -9 -10 -10 -10 -10 -10 -10 -11 -11 -11 -10 -10 -10 -9 -9 -9 -9 -10 -10 -10 -10 -10 -9 -8 -7 -7 -7 -7 -7 -7 -6 -6 -6 -5 -5 -5 -5
-6 -7 -8 -8 -9 -9 -10 -10 -10 -11 -11 -11 -11 -11 -11 -11 -11 -10 -10 -9 -10 -10 -10 -10 -11 -11 -11 -10 -9 -9 -8 -7 -7 -6 -6 -6 -6 -6 -6 -5 -6 -5 -6
-8 -8 -8 -9 -9 -10 -10 -10 -11 -11 -11 -11 -11 -11 -11 -11 -11 -11 -11 -11 -11 -11 -10 -11 -11 -11 -11 -11 -10 -10 -9 -8 -8 -7 -7 -7 -7 -7 -7 -7 -6 -6 -7
-8 -8 -9 -9 -10 -10 -10 -11 -11 -12 -12 -12 -12 -12 -12 -11 -11 -12 -12 -11 -11 -11 -11 -11 -11 -11 -11 -11 -11 -10 -10 -9 -9 -9 -8 -7 -7 -7 -7 -7 -7 -7 -8
-8 -9 -10 -10 -10 -10 -11 -11 -12 -12 -12 -12 -12 -13 -13 -12 -13 -12 -13 -12 -12 -11 -12 -11 -11 -11 -11 -11 -11 -11 -11 -11 -11 -10 -10 -9 -8 -8 -8 -8 -8 -8 -8
-8 -10 -10 -10 -11 -11 -11 -12 -12 -12 -13 -13 -13 -13 -13 -13 -13 -13 -13 -13 -13 -12 -12 -12 -12 -12 -12 -11 -11 -11 -11 -11 -11 -11 -11 -10 -10 -9 -9 -9 -9 -9 -9
-8 -9 -10 -10 -11 -11 -12 -12 -12 -13 -13 -13 -13 -14 -13 -13 -13 -13 -13 -13 -13 -13 -12 -12 -12 -11 -12 -12 -12 -11 -11 -12 -12 -11 -11 -11 -11 -11 -11 -10 -10 -10 -10
-8 -9 -10 -11 -11 -12 -12 -12 -13 -13 -13 -13 -14 -14 -14 -14 -14 -14 -14 -14 -13 -13 -13 -12 -12 -12 -12 -12 -12 -12 -12 -12 -12 -12 -12 -11 -11 -12 -12 -12 -12 -12 -11
-9 -9 -10 -11 -12 -12 -12 -13 -13 -13 -14 -14 -14 -15 -15 -15 -15 -15 -14 -14 -14 -13 -13 -12 -12 -12 -12 -12 -12 -12 -12 -12 -12 -12 -12 -12 -12 -12 -12 -12 -12 -12 -12
-9 -10 -10 -11 -12 -12 -13 -13 -13 -14 -14 -14 -15 -15 -15 -15 -15 -15 -15 -14 -14 -13 -13 -13 -13 -12 -12 -12 -12 -12 -12 -12 -12 -13 -12 -12 -12 -13 -13 -13 -13 -13 -13

GFSGL_850_temp_012.txt.gz
Temp
7 6 6 6 6 6 6 5 4 2 2 1 -0 -0 -0 -1 -1 -1 -1 -2 -2 -2 -2 -3 -3 -3 -3 -3 -3 -3 -3 -3 -4 -4 -4 -3 -3 -3 -2 -2 -1 1 1
5 5 5 5 5 4 3 3 2 2 1 0 -0 -1 -1 -2 -2 -2 -2 -2 -3 -3 -3 -4 -4 -4 -4 -4 -4 -4 -4 -4 -4 -5 -5 -4 -4 -4 -3 -3 -2 -1 -0
4 4 5 4 3 3 2 2 1 0 -0 -0 -1 -1 -2 -2 -2 -3 -3 -3 -4 -4 -4 -5 -5 -4 -5 -5 -5 -5 -5 -5 -5 -5 -5 -5 -5 -5 -4 -4 -3 -2 -2
3 4 3 2 1 1 0 0 -0 -1 -1 -1 -2 -2 -2 -2 -3 -3 -4 -4 -5 -5 -5 -5 -5 -5 -5 -5 -5 -6 -6 -6 -6 -6 -6 -7 -6 -6 -6 -5 -5 -4 -3
3 2 2 2 0 -1 -1 -1 -2 -2 -2 -2 -2 -2 -3 -3 -4 -4 -5 -5 -6 -6 -6 -6 -6 -7 -7 -7 -7 -7 -7 -7 -7 -7 -8 -8 -7 -7 -7 -6 -6 -5 -4
0 1 1 -1 -1 -1 -1 -3 -2 -1 -2 -2 -2 -3 -4 -4 -5 -5 -6 -6 -7 -7 -7 -7 -8 -8 -7 -7 -7 -7 -7 -8 -8 -9 -9 -8 -8 -8 -8 -7 -6 -6 -5
-0 -1 -1 -1 -1 -1 -2 -2 -2 -2 -2 -3 -3 -4 -4 -5 -6 -7 -7 -8 -8 -8 -8 -8 -8 -8 -8 -8 -7 -7 -7 -7 -7 -8 -9 -9 -8 -8 -8 -8 -7 -7 -6
-1 -1 -2 -2 -2 -2 -2 -2 -2 -3 -3 -4 -4 -5 -6 -6 -7 -8 -8 -8 -9 -9 -9 -8 -8 -8 -8 -8 -9 -8 -8 -7 -7 -7 -8 -8 -8 -8 -8 -8 -8 -7 -7
-0 -1 -1 -2 -2 -2 -2 -2 -3 -3 -4 -5 -5 -6 -7 -8 -8 -8 -9 -9 -9 -9 -9 -9 -9 -9 -8 -9 -9 -9 -9 -8 -7 -7 -8 -8 -8 -8 -8 -8 -8 -7 -7
-1 -2 -2 -3 -2 -2 -3 -4 -4 -5 -5 -6 -7 -8 -8 -8 -8 -9 -9 -10 -10 -9 -9 -8 -8 -8 -9 -9 -9 -9 -9 -8 -8 -8 -8 -8 -8 -8 -8 -8 -7 -7 -7
-2 -2 -2 -2 -3 -4 -4 -4 -5 -6 -6 -7 -8 -9 -9 -9 -9 -9 -9 -10 -9 -9 -9 -8 -8 -9 -9 -8 -8 -9 -9 -8 -8 -8 -8 -8 -8 -7 -7 -8 -7 -7 -7
-2 -2 -3 -3 -4 -4 -5 -6 -6 -7 -8 -9 -9 -9 -9 -9 -9 -9 -10 -9 -9 -9 -8 -9 -9 -9 -9 -9 -8 -8 -8 -8 -8 -8 -8 -8 -8 -7 -6 -7 -7 -7 -7
-2 -3 -3 -4 -4 -5 -6 -6 -7 -8 -9 -10 -10 -10 -10 -9 -9 -10 -9 -9 -9 -8 -9 -9 -10 -10 -10 -9 -9 -8 -8 -8 -8 -8 -7 -7 -7 -7 -7 -7 -7 -7 -7
-3 -3 -4 -4 -5 -6 -7 -8 -9 -9 -10 -10 -10 -10 -10 -10 -10 -10 -10 -9 -9 -9 -9 -10 -10 -10 -9 -9 -8 -7 -7 -7 -7 -7 -7 -7 -7 -8 -8 -7 -7 -7 -7
-4 -4 -5 -5 -6 -7 -8 -9 -9 -10 -10 -10 -11 -11 -11 -10 -10 -10 -10 -10 -9 -9 -9 -10 -10 -10 -9 -8 -8 -7 -7 -7 -7 -7 -7 -7 -8 -8 -8 -8 -7 -7 -7
-4 -5 -6 -6 -8 -9 -9 -9 -10 -10 -11 -11 -11 -11 -11 -11 -11 -10 -10 -10 -9 -9 -10 -10 -11 -11 -10 -9 -8 -8 -7 -7 -7 -7 -7 -7 -7 -7 -7 -7 -7 -7 -6
-5 -6 -8 -8 -9 -9 -10 -10 -11 -11 -11 -11 -11 -11 -11 -12 -11 -10 -10 -10 -10 -10 -10 -11 -11 -11 -11 -10 -9 -9 -8 -7 -7 -8 -7 -7 -7 -7 -6 -6 -6 -6 -6
-6 -7 -8 -8 -9 -10 -10 -11 -11 -11 -12 -12 -11 -12 -11 -12 -11 -11 -10 -10 -10 -10 -11 -11 -11 -11 -11 -11 -10 -10 -9 -8 -8 -7 -7 -7 -6 -6 -6 -5 -6 -6 -6
-7 -8 -9 -9 -9 -10 -10 -11 -11 -11 -12 -12 -12 -12 -12 -12 -12 -11 -11 -11 -11 -11 -11 -11 -11 -11 -11 -11 -10 -10 -10 -9 -9 -8 -7 -7 -7 -7 -7 -7 -7 -7 -6
-7 -8 -9 -10 -10 -10 -11 -11 -12 -12 -12 -12 -13 -13 -12 -12 -12 -12 -12 -12 -12 -11 -12 -11 -11 -11 -11 -11 -11 -10 -10 -10 -10 -9 -9 -8 -8 -7 -7 -7 -7 -8 -8
-8 -9 -10 -10 -10 -11 -11 -12 -12 -12 -13 -13 -13 -13 -13 -13 -13 -13 -13 -12 -12 -12 -12 -12 -12 -11 -11 -11 -11 -11 -11 -11 -11 -10 -10 -9 -9 -8 -8 -8 -8 -8 -8
-8 -9 -10 -10 -11 -11 -12 -12 -12 -13 -13 -13 -14 -14 -13 -13 -13 -13 -13 -13 -13 -13 -13 -12 -12 -12 -12 -11 -11 -11 -11 -11 -11 -11 -11 -10 -10 -10 -10 -9 -9 -9 -9
-8 -9 -9 -10 -11 -12 -12 -12 -13 -13 -13 -14 -14 -14 -14 -14 -14 -14 -14 -14 -13 -13 -13 -13 -12 -13 -12 -12 -12 -11 -11 -12 -11 -11 -11 -11 -11 -11 -11 -10 -10 -10 -10
-8 -9 -10 -10 -11 -12 -12 -13 -13 -13 -14 -14 -14 -15 -15 -15 -15 -15 -15 -14 -14 -14 -13 -13 -13 -13 -13 -12 -12 -12 -12 -12 -12 -11 -12 -11 -11 -11 -11 -11 -11 -11 -11
-9 -10 -11 -11 -11 -12 -12 -13 -13 -14 -14 -14 -15 -15 -15 -15 -15 -15 -15 -15 -14 -14 -13 -13 -13 -13 -13 -13 -12 -13 -13 -12 -12 -12 -12 -12 -12 -12 -12 -12 -12 -12 -12
-10 -10 -11 -11 -11 -12 -12 -13 -13 -14 -14 -14 -15 -15 -15 -15 -15 -15 -15 -14 -14 -14 -14 -14 -13 -13 -13 -12 -12 -12 -13 -13 -12 -13 -13 -12 -12 -12 -13 -13 -12 -12 -12

GFSGL_850_temp_015.txt.gz
Temp
6 5 5 5 4 5 5 5 5 3 2 1 1 0 -1 -1 -1 -2 -2 -2 -2 -2 -2 -3 -3 -3 -3 -3 -4 -4 -4 -4 -4 -5 -5 -4 -4 -4 -4 -3 -3 -2 -1
5 4 3 3 3 3 3 3 2 2 0 -0 -0 -0 -1 -1 -2 -2 -2 -2 -3 -3 -3 -3 -4 -4 -4 -4 -5 -5 -5 -5 -5 -5 -5 -5 -5 -5 -5 -5 -4 -4 -3
4 3 3 2 2 2 1 1 1 0 -1 -1 -1 -1 -2 -2 -2 -2 -3 -3 -3 -4 -4 -5 -5 -5 -5 -5 -5 -6 -6 -6 -6 -6 -6 -6 -6 -6 -5 -5 -5 -4 -3
3 3 2 1 2 1 -0 -1 -1 -2 -3 -3 -3 -3 -2 -2 -3 -3 -3 -4 -4 -5 -5 -6 -6 -6 -6 -6 -6 -6 -6 -7 -7 -7 -7 -8 -7 -7 -7 -6 -6 -6 -5
3 2 0 -0 -1 -1 -2 -2 -3 -2 -3 -3 -2 -2 -3 -3 -3 -4 -4 -5 -6 -6 -6 -6 -7 -7 -7 -7 -8 -8 -8 -8 -8 -8 -8 -8 -8 -8 -8 -7 -7 -6 -6
1 1 -1 -1 -1 -2 -2 -3 -3 -3 -3 -3 -3 -3 -3 -4 -4 -5 -6 -7 -7 -7 -7 -7 -7 -8 -8 -8 -8 -8 -8 -8 -8 -9 -8 -8 -8 -8 -8 -8 -8 -8 -7
0 -0 -1 -2 -2 -2 -3 -3 -3 -3 -3 -3 -4 -4 -4 -5 -6 -6 -7 -8 -8 -8 -8 -8 -9 -9 -9 -8 -8 -8 -8 -8 -8 -9 -9 -9 -8 -8 -8 -8 -8 -8 -8
-1 -1 -2 -2 -2 -3 -2 -3 -3 -3 -4 -4 -4 -5 -5 -6 -7 -7 -8 -8 -8 -8 -9 -9 -9 -9 -8 -9 -10 -9 -9 -9 -9 -8 -8 -8 -8 -8 -8 -8 -8 -8 -8
-2 -3 -3 -3 -3 -3 -3 -3 -4 -4 -4 -5 -5 -6 -7 -7 -7 -8 -8 -9 -9 -9 -9 -9 -9 -8 -8 -8 -9 -9 -9 -8 -8 -9 -9 -8 -8 -8 -8 -8 -8 -8 -8
-2 -3 -2 -2 -3 -3 -4 -4 -4 -5 -5 -6 -6 -7 -8 -8 -8 -9 -9 -9 -10 -9 -9 -8 -8 -9 -9 -9 -9 -9 -9 -8 -8 -9 -9 -8 -8 -8 -8 -8 -8 -8 -8
-3 -3 -3 -3 -3 -4 -4 -5 -5 -6 -6 -7 -7 -8 -8 -9 -9 -9 -9 -10 -10 -9 -9 -8 -9 -9 -9 -9 -9 -9 -9 -8 -8 -8 -9 -8 -8 -8 -8 -8 -8 -8 -8
-4 -3 -3 -3 -4 -4 -5 -6 -6 -7 -7 -8 -8 -8 -9 -9 -9 -9 -9 -10 -10 -9 -9 -9 -9 -9 -10 -10 -9 -9 -9 -9 -8 -8 -8 -8 -8 -8 -8 -8 -8 -7 -8
-3 -3 -4 -4 -5 -5 -6 -7 -7 -8 -9 -9 -10 -10 -10 -10 -10 -10 -10 -10 -9 -9 -9 -9 -10 -10 -10 -9 -9 -8 -8 -8 -8 -8 -8 -7 -7 -7 -8 -8 -8 -8 -7
-4 -4 -4 -5 -6 -7 -7 -8 -8 -9 -9 -10 -10 -10 -11 -11 -10 -10 -10 -10 -10 -10 -9 -9 -10 -10 -10 -9 -8 -8 -7 -7 -7 -8 -8 -8 -8 -8 -8 -8 -8 -8 -8
-4 -5 -5 -6 -7 -7 -8 -8 -9 -10 -10 -11 -11 -11 -11 -11 -11 -11 -11 -10 -10 -10 -10 -10 -10 -10 -10 -9 -8 -8 -7 -7 -7 -8 -8 -8 -8 -8 -8 -8 -8 -8 -8
-5 -5 -6 -7 -8 -8 -9 -9 -10 -10 -11 -11 -11 -12 -11 -12 -12 -11 -11 -10 -10 -10 -10 -10 -11 -11 -11 -10 -9 -9 -8 -8 -8 -8 -8 -7 -8 -8 -8 -8 -8 -8 -7
-5 -6 -7 -8 -8 -9 -9 -10 -10 -11 -11 -12 -12 -12 -12 -12 -12 -11 -11 -11 -11 -10 -10 -11 -11 -11 -11 -11 -10 -10 -9 -8 -8 -8 -8 -7 -7 -7 -7 -7 -7 -7 -7
-6 -6 -7 -8 -9 -10 -10 -11 -11 -11 -12 -12 -12 -12 -12 -12 -12 -12 -11 -11 -10 -10 -11 -11 -11 -11 -11 -11 -11 -11 -10 -9 -8 -8 -7 -7 -7 -7 -7 -7 -7 -7 -6
-7 -7 -8 -9 -9 -10 -11 -11 -11 -12 -12 -13 -13 -12 -12 -12 -12 -12 -12 -11 -11 -11 -12 -12 -12 -11 -11 -11 -11 -11 -11 -11 -10 -9 -8 -8 -7 -7 -8 -8 -8 -8 -7
-7 -8 -9 -10 -10 -10 -11 -11 -12 -12 -13 -13 -13 -13 -13 -13 -12 -12 -12 -12 -12 -12 -12 -12 -12 -12 -12 -12 -11 -11 -11 -11 -10 -10 -10 -9 -9 -8 -8 -8 -8 -8 -9
-8 -8 -9 -10 -10 -11 -11 -12 -12 -13 -13 -13 -14 -14 -14 -14 -13 -13 -13 -13 -13 -12 -12 -12 -12 -12 -12 -12 -12 -11 -11 -11 -11 -11 -11 -10 -10 -9 -9 -9 -9 -9 -9
-8 -9 -9 -9 -10 -11 -11 -12 -12 -13 -13 -14 -14 -14 -14 -14 -14 -14 -14 -14 -13 -13 -13 -13 -13 -13 -12 -12 -12 -12 -12 -12 -11 -11 -11 -11 -11 -10 -10 -10 -10 -10 -10
-8 -9 -9 -10 -10 -11 -12 -12 -13 -13 -14 -14 -14 -15 -15 -14 -15 -15 -14 -14 -14 -13 -14 -13 -13 -13 -13 -13 -13 -12 -12 -12 -12 -12 -12 -11 -11 -11 -11 -11 -11 -11 -10
-8 -9 -10 -10 -11 -11 -12 -12 -13 -13 -14 -14 -15 -15 -15 -15 -15 -15 -15 -15 -15 -14 -13 -13 -13 -13 -13 -13 -13 -13 -13 -13 -13 -12 -12 -11 -11 -12 -11 -11 -11 -11 -11
-9 -10 -10 -11 -11 -11 -11 -12 -13 -13 -14 -14 -15 -15 -15 -15 -15 -15 -15 -15 -14 -14 -14 -13 -13 -13 -13 -13 -13 -13 -13 -13 -13 -13 -12 -12 -12 -12 -12 -12 -12 -12 -12
-10 -10 -10 -11 -11 -11 -12 -12 -12 -13 -14 -14 -15 -15 -15 -14 -14 -15 -15 -14 -14 -14 -14 -14 -13 -13 -13 -13 -12 -12 -12 -12 -12 -12 -13 -12 -12 -12 -13 -13 -13 -12 -13

GFSGL_850_temp_018.txt.gz
Temp
6 5 4 3 3 3 3 3 3 2 1 0 -0 -1 -1 -1 -1 -2 -2 -2 -2 -2 -2 -3 -3 -3 -3 -3 -4 -4 -4 -5 -5 -5 -5 -5 -5 -5 -5 -4 -4 -3 -3
5 4 3 3 2 2 2 2 0 -1 -1 -2 -2 -3 -3 -2 -2 -2 -2 -3 -3 -3 -3 -3 -3 -4 -4 -4 -5 -5 -5 -5 -6 -6 -6 -6 -6 -5 -6 -5 -5 -5 -4
4 3 3 2 2 1 -0 -1 -1 -2 -2 -2 -2 -2 -3 -3 -3 -3 -3 -3 -3 -4 -4 -4 -4 -5 -5 -6 -6 -6 -6 -6 -6 -7 -7 -7 -7 -6 -6 -6 -5 -5 -5
3 2 2 1 -0 -1 -1 -2 -2 -3 -3 -3 -3 -3 -3 -3 -3 -3 -4 -4 -4 -4 -5 -5 -6 -6 -6 -7 -7 -7 -7 -7 -8 -8 -8 -8 -8 -8 -8 -7 -6 -5 -5
2 1 1 -1 -2 -2 -2 -3 -3 -3 -3 -3 -3 -3 -3 -4 -4 -4 -4 -4 -5 -5 -5 -6 -6 -7 -7 -7 -8 -8 -9 -9 -9 -9 -8 -8 -8 -8 -8 -8 -8 -7 -6
1 0 -1 -2 -2 -2 -2 -3 -3 -3 -3 -3 -4 -4 -4 -4 -4 -5 -5 -6 -6 -7 -7 -7 -8 -8 -8 -8 -8 -8 -9 -9 -9 -9 -9 -9 -9 -9 -8 -9 -8 -8 -8
-1 -1 -1 -2 -2 -2 -3 -3 -3 -3 -3 -4 -4 -4 -5 -5 -6 -6 -7 -7 -7 -8 -8 -8 -9 -9 -9 -9 -9 -9 -10 -9 -10 -9 -9 -9 -9 -9 -9 -9 -9 -8 -8
-1 -2 -2 -2 -2 -2 -3 -3 -3 -4 -4 -4 -5 -5 -6 -6 -7 -7 -7 -8 -9 -9 -9 -9 -9 -9 -8 -9 -9 -10 -9 -9 -9 -9 -9 -9 -8 -9 -9 -8 -8 -8 -8
-2 -2 -3 -3 -3 -3 -3 -4 -4 -5 -5 -6 -6 -6 -7 -7 -7 -8 -9 -9 -9 -9 -9 -9 -9 -9 -9 -9 -9 -9 -9 -9 -8 -8 -9 -8 -9 -9 -9 -9 -9 -9 -9
-3 -3 -3 -3 -3 -4 -4 -4 -5 -6 -6 -7 -7 -7 -8 -8 -8 -9 -10 -9 -10 -10 -10 -9 -9 -9 -9 -9 -9 -10 -10 -9 -9 -9 -9 -8 -8 -9 -9 -9 -8 -9 -9
-4 -4 -4 -4 -4 -4 -5 -6 -6 -7 -7 -7 -8 -8 -9 -9 -9 -10 -10 -11 -11 -10 -10 -9 -9 -9 -10 -9 -10 -10 -10 -10 -10 -9 -9 -8 -8 -8 -8 -8 -8 -8 -8
-4 -4 -4 -4 -5 -5 -6 -6 -7 -7 -8 -8 -9 -9 -9 -10 -10 -10 -10 -10 -10 -10 -10 -10 -10 -10 -10 -9 -9 -9 -9 -9 -9 -9 -9 -8 -8 -8 -8 -8 -8 -8 -8
-4 -4 -4 -5 -5 -6 -7 -8 -8 -8 -9 -9 -10 -10 -10 -10 -10 -11 -11 -11 -10 -10 -10 -10 -10 -10 -10 -10 -9 -9 -8 -8 -8 -8 -8 -8 -8 -8 -8 -8 -8 -8 -8
-4 -5 -5 -5 -6 -7 -8 -8 -9 -9 -10 -10 -11 -11 -11 -11 -11 -11 -12 -11 -11 -11 -10 -10 -10 -10 -11 -10 -9 -9 -8 -8 -8 -8 -8 -8 -8 -8 -8 -8 -8 -8 -8
-5 -5 -6 -6 -7 -8 -8 -9 -9 -10 -11 -11 -11 -12 -12 -12 -12 -12 -12 -11 -11 -11 -10 -10 -10 -11 -10 -10 -9 -9 -8 -8 -8 -9 -9 -8 -8 -8 -8 -8 -8 -8 -8
-5 -6 -6 -6 -7 -8 -9 -9 -10 -10 -11 -12 -12 -12 -13 -13 -13 -13 -12 -11 -11 -11 -11 -11 -11 -11 -11 -11 -11 -10 -9 -9 -8 -8 -8 -8 -8 -7 -7 -8 -8 -8 -8
-6 -6 -7 -7 -7 -8 -9 -9 -10 -10 -11 -12 -12 -13 -13 -13 -13 -12 -12 -12 -12 -11 -11 -11 -11 -12 -12 -12 -12 -11 -10 -10 -9 -8 -8 -7 -8 -7 -7 -7 -7 -7 -7
-7 -7 -7 -7 -8 -9 -9 -10 -11 -12 -12 -12 -13 -13 -13 -13 -13 -13 -12 -12 -11 -11 -12 -12 -12 -12 -12 -12 -12 -12 -11 -11 -10 -9 -8 -8 -8 -8 -9 -8 -7 -7 -7
-7 -7 -7 -8 -9 -9 -10 -11 -12 -12 -12 -13 -13 -13 -13 -13 -13 -13 -13 -13 -13 -12 -12 -12 -12 -12 -12 -12 -12 -12 -12 -12 -11 -10 -10 -9 -9 -8 -8 -9 -8 -9 -8
-8 -8 -8 -8 -9 -10 -10 -11 -12 -12 -13 -13 -13 -14 -14 -13 -13 -13 -13 -13 -13 -13 -13 -13 -13 -12 -12 -12 -12 -12 -12 -12 -12 -12 -11 -10 -10 -9 -9 -8 -9 -8 -9
-8 -8 -9 -9 -9 -10 -10 -11 -12 -13 -13 -13 -14 -14 -14 -14 -14 -14 -14 -14 -14 -13 -13 -13 -13 -13 -12 -12 -12 -12 -12 -12 -12 -12 -12 -11 -11 -10 -10 -9 -9 -9 -9
-10 -9 -9 -9 -9 -10 -11 -11 -12 -13 -13 -14 -14 -14 -15 -15 -15 -15 -15 -14 -14 -14 -14 -14 -13 -13 -13 -13 -13 -13 -13 -12 -12 -12 -12 -12 -12 -11 -11 -10 -10 -10 -10
-8 -8 -9 -9 -10 -10 -11 -11 -12 -13 -13 -14 -14 -15 -15 -15 -15 -15 -15 -15 -15 -14 -14 -13 -13 -13 -13 -13 -13 -13 -13 -13 -13 -13 -13 -12 -12 -12 -11 -11 -11 -11 -10
-9 -9 -10 -11 -10 -10 -11 -11 -12 -13 -13 -14 -14 -15 -15 -15 -15 -15 -15 -15 -14 -14 -14 -14 -13 -13 -13 -13 -13 -13 -13 -13 -13 -13 -13 -13 -12 -12 -12 -12 -11 -12 -11
-10 -10 -10 -11 -11 -10 -11 -11 -12 -12 -13 -13 -14 -14 -14 -14 -15 -15 -15 -15 -14 -14 -14 -14 -13 -13 -13 -13 -12 -12 -13 -13 -13 -13 -13 -13 -12 -12 -12 -12 -12 -12 -12
-10 -10 -10 -11 -11 -11 -11 -11 -12 -12 -13 -13 -14 -14 -14 -14 -14 -14 -15 -15 -15 -14 -14 -14 -14 -14 -13 -13 -13 -13 -12 -12 -12 -12 -13 -13 -12 -12 -12 -12 -13 -13 -13

GFSGL_850_temp_021.txt.gz
Temp
5 4 4 3 3 2 2 2 1 1 -1 -1 -2 -2 -2 -2 -3 -4 -4 -4 -3 -3 -3 -3 -3 -3 -4 -4 -4 -5 -4 -4 -4 -4 -4 -4 -5 -5 -5 -4 -4 -5 -4
4 4 3 3 2 2 1 -0 -1 -2 -2 -3 -3 -2 -3 -3 -4 -3 -3 -3 -3 -3 -3 -3 -4 -4 -5 -5 -6 -6 -6 -5 -5 -5 -5 -5 -5 -5 -5 -5 -5 -5 -5
3 2 2 2 1 0 -1 -1 -1 -2 -3 -3 -3 -3 -3 -3 -3 -3 -3 -3 -4 -4 -4 -4 -5 -5 -6 -7 -7 -7 -7 -7 -6 -6 -6 -6 -6 -6 -6 -6 -6 -6 -5
2 1 1 0 -1 -2 -2 -2 -3 -3 -3 -3 -3 -3 -3 -3 -4 -4 -4 -4 -4 -4 -4 -5 -6 -7 -7 -8 -8 -8 -8 -8 -8 -7 -7 -7 -7 -7 -7 -7 -6 -6 -6
0 -0 -1 -1 -2 -2 -2 -3 -3 -3 -3 -3 -4 -4 -4 -4 -4 -4 -4 -5 -5 -5 -5 -6 -7 -7 -7 -7 -9 -8 -8 -8 -8 -9 -8 -8 -7 -7 -7 -7 -7 -7 -7
-1 -1 -2 -1 -2 -2 -3 -2 -3 -3 -3 -4 -4 -4 -4 -5 -5 -5 -6 -6 -6 -7 -8 -8 -8 -8 -8 -8 -8 -8 -9 -9 -9 -9 -8 -8 -8 -7 -8 -8 -8 -7 -7
-1 -2 -3 -2 -2 -3 -3 -3 -3 -3 -4 -4 -5 -5 -5 -5 -6 -7 -7 -7 -8 -9 -9 -9 -9 -9 -9 -10 -9 -9 -9 -9 -10 -10 -9 -9 -9 -8 -8 -8 -8 -8 -8
-2 -2 -3 -3 -3 -3 -3 -3 -4 -4 -5 -5 -5 -6 -6 -6 -7 -7 -8 -8 -10 -10 -9 -10 -10 -10 -9 -9 -9 -10 -10 -9 -9 -9 -9 -9 -9 -9 -8 -8 -8 -8 -8
-3 -3 -4 -4 -4 -4 -4 -4 -5 -5 -6 -6 -6 -7 -8 -8 -8 -9 -9 -10 -11 -10 -10 -10 -10 -10 -9 -9 -9 -9 -9 -9 -9 -9 -9 -9 -9 -9 -9 -9 -9 -9 -8
-4 -4 -4 -4 -4 -4 -5 -5 -6 -6 -7 -7 -7 -8 -9 -9 -9 -10 -10 -11 -11 -11 -10 -10 -10 -9 -9 -9 -9 -10 -10 -10 -10 -10 -10 -9 -9 -9 -8 -8 -8 -8 -8
-4 -4 -4 -4 -5 -5 -5 -6 -7 -7 -8 -8 -9 -9 -10 -10 -10 -10 -10 -11 -11 -11 -10 -10 -10 -10 -9 -10 -10 -10 -10 -9 -9 -9 -10 -9 -9 -8 -8 -8 -8 -8 -8
-3 -4 -4 -5 -5 -5 -6 -7 -8 -8 -9 -9 -9 -10 -11 -11 -11 -11 -11 -11 -12 -11 -11 -10 -10 -10 -10 -10 -10 -10 -9 -8 -8 -8 -8 -8 -8 -8 -8 -8 -8 -8 -8
-4 -4 -5 -5 -6 -6 -7 -8 -8 -9 -10 -10 -11 -11 -12 -12 -12 -12 -12 -12 -11 -11 -10 -10 -10 -10 -10 -10 -10 -9 -8 -8 -8 -8 -9 -9 -9 -8 -8 -8 -8 -8 -8
-5 -5 -5 -6 -6 -7 -7 -8 -9 -10 -11 -11 -11 -12 -12 -12 -12 -12 -12 -12 -12 -11 -11 -11 -11 -11 -11 -11 -10 -9 -9 -9 -9 -9 -9 -9 -8 -8 -8 -8 -8 -8 -8
-5 -5 -6 -6 -7 -7 -8 -9 -9 -10 -11 -12 -12 -12 -13 -13 -13 -13 -13 -12 -12 -12 -11 -11 -11 -11 -11 -11 -10 -10 -10 -9 -9 -8 -8 -8 -8 -8 -8 -8 -8 -8 -8
-5 -6 -6 -7 -7 -8 -8 -9 -9 -10 -11 -12 -12 -13 -13 -14 -13 -13 -12 -12 -12 -12 -11 -11 -11 -11 -11 -12 -12 -11 -10 -10 -9 -9 -8 -8 -8 -8 -8 -7 -8 -8 -8
-6 -7 -7 -7 -8 -8 -9 -9 -10 -10 -11 -12 -12 -13 -13 -14 -14 -13 -13 -12 -12 -12 -12 -12 -12 -12 -12 -12 -12 -12 -11 -11 -10 -9 -9 -8 -8 -8 -8 -8 -7 -8 -8
-7 -7 -8 -8 -8 -9 -9 -9 -10 -11 -11 -12 -12 -13 -13 -13 -13 -13 -13 -12 -12 -12 -13 -13 -12 -12 -12 -12 -12 -12 -12 -11 -11 -10 -10 -9 -9 -9 -10 -8 -8 -8 -8
-8 -8 -8 -8 -9 -9 -9 -10 -11 -11 -12 -12 -13 -13 -13 -13 -14 -14 -13 -13 -13 -13 -13 -13 -13 -13 -13 -12 -12 -12 -12 -12 -11 -11 -11 -10 -10 -9 -9 -9 -8 -9 -9
-8 -8 -9 -9 -9 -9 -10 -10 -11 -11 -12 -13 -13 -14 -14 -14 -14 -14 -14 -14 -14 -14 -14 -14 -13 -13 -13 -13 -13 -12 -12 -12 -12 -12 -11 -11 -11 -10 -10 -9 -9 -9 -9
-10 -10 -9 -9 -9 -10 -10 -10 -11 -11 -12 -13 -13 -14 -14 -15 -15 -15 -15 -15 -15 -14 -14 -14 -14 -13 -13 -13 -13 -13 -12 -12 -12 -12 -12 -12 -11 -11 -11 -10 -10 -10 -9
-9 -9 -9 -9 -10 -10 -10 -11 -11 -11 -12 -12 -13 -14 -14 -15 -15 -15 -16 -16 -16 -15 -14 -14 -14 -14 -14 -13 -13 -13 -13 -13 -12 -12 -12 -12 -12 -12 -11 -11 -11 -10 -10
-10 -9 -9 -10 -10 -10 -11 -11 -11 -11 -12 -12 -13 -14 -14 -14 -15 -15 -16 -16 -15 -15 -15 -14 -14 -14 -14 -14 -13 -13 -13 -13 -13 -13 -13 -13 -12 -12 -12 -11 -11 -11 -11
-11 -10 -10 -11 -11 -11 -11 -11 -11 -11 -12 -12 -13 -13 -14 -14 -15 -15 -15 -15 -15 -15 -15 -15 -14 -14 -14 -14 -13 -13 -13 -13 -13 -13 -13 -13 -12 -12 -12 -12 -12 -11 -11
-11 -11 -10 -11 -11 -11 -11 -11 -11 -11 -12 -12 -12 -13 -13 -14 -14 -14 -15 -15 -15 -14 -14 -14 -14 -14 -14 -14 -14 -13 -13 -13 -13 -13 -12 -12 -12 -12 -12 -12 -12 -12 -12
-11 -11 -11 -11 -11 -11 -11 -10 -11 -11 -12 -12 -12 -12 -13 -13 -14 -14 -14 -14 -14 -14 -14 -14 -14 -14 -14 -14 -14 -14 -13 -13 -13 -13 -13 -13 -13 -13 -13 -13 -13 -13 -13

GFSGL_850_temp_024.txt.gz
Temp
4 3 3 2 1 1 0 -0 -1 -1 -1 -1 -2 -2 -2 -2 -3 -3 -3 -4 -4 -4 -3 -3 -3 -3 -2 -2 -2 -3 -3 -2 -2 -2 -1 -1 -2 -2 -2 -2 -2 -3 -2
3 3 2 1 1 0 -1 -1 -2 -2 -2 -2 -2 -2 -3 -3 -4 -3 -3 -4 -4 -3 -3 -3 -3 -3 -3 -3 -3 -3 -3 -3 -3 -3 -2 -2 -2 -2 -3 -3 -3 -3 -3
2 2 2 1 -0 -1 -1 -2 -2 -2 -3 -3 -3 -3 -3 -3 -3 -4 -4 -4 -4 -4 -4 -4 -4 -4 -5 -5 -5 -4 -4 -4 -4 -4 -3 -3 -3 -3 -3 -3 -3 -3 -3
1 1 1 -0 -1 -2 -2 -2 -2 -2 -2 -3 -3 -4 -4 -4 -5 -5 -5 -5 -5 -5 -5 -5 -6 -6 -6 -6 -6 -6 -6 -5 -5 -5 -4 -4 -4 -4 -4 -4 -4 -4 -3
0 0 -0 -1 -2 -2 -2 -3 -3 -3 -3 -3 -4 -4 -4 -5 -5 -5 -5 -6 -6 -6 -6 -6 -7 -7 -7 -7 -8 -7 -7 -6 -5 -5 -6 -6 -6 -5 -5 -5 -5 -5 -5
-0 -0 -2 -2 -3 -3 -3 -3 -3 -3 -4 -4 -4 -5 -5 -5 -6 -6 -6 -7 -7 -7 -7 -7 -7 -7 -7 -8 -8 -9 -9 -9 -8 -8 -7 -7 -7 -7 -6 -6 -6 -6 -6
-1 -1 -2 -2 -3 -3 -3 -3 -3 -4 -4 -5 -5 -5 -6 -6 -7 -7 -7 -7 -8 -7 -7 -7 -7 -7 -8 -8 -9 -9 -9 -9 -9 -9 -9 -8 -8 -7 -7 -7 -7 -7 -6
-1 -2 -2 -3 -3 -3 -4 -4 -4 -5 -5 -5 -6 -6 -7 -7 -8 -8 -8 -8 -8 -8 -8 -8 -8 -9 -9 -9 -10 -9 -9 -9 -8 -8 -8 -8 -8 -8 -8 -8 -7 -7 -7
-2 -3 -3 -3 -4 -4 -4 -5 -5 -6 -6 -6 -7 -7 -8 -8 -9 -9 -9 -10 -9 -10 -10 -9 -9 -9 -9 -9 -9 -9 -9 -8 -8 -8 -9 -8 -8 -8 -8 -8 -8 -7 -7
-2 -3 -3 -4 -4 -5 -5 -5 -6 -6 -6 -7 -8 -9 -9 -9 -10 -11 -11 -11 -11 -10 -10 -10 -9 -9 -9 -9 -9 -9 -9 -9 -9 -9 -9 -9 -9 -9 -8 -8 -8 -8 -8
-3 -3 -4 -4 -5 -5 -6 -6 -6 -7 -8 -9 -9 -10 -10 -10 -11 -11 -12 -12 -11 -11 -10 -10 -9 -9 -9 -10 -10 -10 -10 -10 -9 -9 -9 -8 -8 -8 -8 -8 -8 -8 -8
-3 -4 -4 -5 -5 -6 -6 -6 -7 -7 -8 -9 -9 -10 -10 -10 -10 -11 -12 -11 -11 -11 -11 -10 -10 -10 -10 -10 -10 -11 -10 -9 -9 -9 -8 -8 -8 -8 -8 -7 -7 -8 -8
-4 -4 -5 -6 -6 -6 -7 -7 -7 -8 -9 -9 -10 -10 -10 -11 -10 -11 -12 -11 -12 -11 -11 -11 -11 -11 -10 -11 -11 -10 -9 -10 -9 -9 -8 -8 -8 -8 -8 -8 -7 -7 -7
-4 -5 -5 -6 -6 -6 -7 -7 -8 -9 -10 -10 -10 -10 -11 -11 -11 -12 -12 -12 -12 -11 -11 -11 -11 -11 -11 -11 -11 -11 -11 -10 -10 -10 -9 -9 -8 -7 -8 -7 -7 -7 -7
-5 -6 -6 -7 -7 -7 -8 -8 -9 -10 -10 -11 -11 -12 -12 -12 -12 -13 -13 -13 -13 -12 -11 -12 -12 -11 -12 -11 -11 -11 -11 -11 -10 -10 -9 -9 -8 -8 -7 -8 -8 -7 -7
-6 -6 -7 -7 -7 -8 -8 -9 -9 -10 -10 -11 -12 -12 -13 -13 -14 -14 -13 -12 -12 -12 -12 -12 -12 -12 -12 -12 -12 -12 -12 -12 -11 -11 -10 -9 -9 -8 -8 -7 -7 -8 -7
-6 -6 -7 -8 -8 -8 -9 -9 -9 -10 -10 -11 -12 -13 -13 -14 -14 -14 -13 -13 -13 -12 -12 -13 -13 -13 -12 -13 -13 -13 -12 -12 -12 -11 -11 -10 -10 -10 -8 -8 -7 -7 -7
-6 -7 -8 -8 -9 -9 -9 -10 -10 -10 -11 -11 -12 -13 -14 -14 -14 -13 -13 -14 -14 -13 -13 -13 -13 -13 -13 -13 -14 -14 -13 -13 -13 -12 -12 -11 -10 -10 -9 -9 -9 -8 -7
-7 -8 -8 -9 -9 -9 -9 -10 -10 -11 -11 -11 -12 -12 -14 -15 -15 -15 -14 -15 -15 -15 -14 -14 -13 -14 -15 -15 -15 -14 -14 -13 -13 -13 -13 -12 -11 -11 -10 -10 -10 -9 -9
-9 -9 -9 -9 -9 -9 -10 -10 -11 -11 -11 -12 -12 -13 -14 -14 -15 -15 -16 -16 -16 -16 -15 -15 -15 -15 -15 -15 -15 -15 -14 -14 -14 -13 -13 -13 -12 -11 -11 -11 -10 -10 -9
-9 -9 -9 -9 -9 -10 -10 -10 -11 -11 -12 -12 -12 -14 -14 -15 -15 -15 -16 -16 -16 -15 -15 -16 -16 -15 -15 -15 -15 -16 -15 -15 -14 -13 -13 -13 -13 -12 -12 -11 -11 -10 -10
-10 -9 -9 -9 -10 -10 -10 -11 -11 -12 -12 -12 -13 -14 -14 -15 -15 -16 -16 -15 -15 -15 -14 -15 -15 -14 -14 -14 -14 -14 -15 -14 -13 -12 -13 -13 -13 -12 -12 -12 -12 -11 -11
-10 -10 -10 -10 -10 -10 -10 -11 -11 -11 -12 -12 -13 -14 -14 -15 -15 -16 -16 -15 -14 -14 -14 -14 -14 -14 -14 -14 -14 -13 -13 -13 -13 -12 -12 -14 -14 -14 -13 -12 -12 -12 -12
-10 -10 -10 -10 -10 -10 -10 -11 -11 -11 -12 -13 -13 -14 -14 -15 -15 -15 -15 -15 -15 -14 -14 -14 -14 -14 -14 -14 -14 -13 -13 -13 -13 -13 -12 -12 -13 -14 -14 -14 -13 -13 -13
-10 -10 -10 -10 -10 -10 -10 -10 -11 -11 -12 -12 -13 -14 -14 -15 -15 -14 -14 -14 -14 -14 -14 -14 -14 -14 -14 -14 -14 -14 -13 -13 -13 -13 -13 -13 -13 -12 -12 -14 -14 -14 -14
-10 -10 -10 -10 -10 -10 -10 -10 -11 -11 -11 -12 -13 -14 -14 -14 -13 -13 -14 -14 -14 -14 -14 -14 -14 -14 -14 -14 -14 -14 -14 -14 -13 -13 -13 -13 -13 -13 -13 -13 -13 -14 -14

GFSGL_850_temp_027.txt.gz
Temp
6 5 5 4 4 3 2 2 1 -0 -1 -1 -2 -1 -1 -2 -3 -3 -3 -3 -3 -3 -3 -3 -3 -3 -3 -2 -2 -2 -3 -3 -3 -2 -1 -1 -1 -1 -0 -1 -1 -1 -1
4 4 4 3 3 2 1 1 -1 -1 -2 -2 -2 -2 -2 -2 -2 -2 -2 -3 -3 -3 -3 -3 -2 -2 -2 -3 -3 -2 -2 -2 -2 -2 -1 -1 -1 -1 -1 -1 -1 -1 -1
3 3 3 3 1 0 -1 -1 -1 -2 -2 -2 -2 -2 -2 -2 -2 -3 -3 -3 -3 -3 -3 -3 -3 -3 -3 -3 -3 -3 -3 -3 -3 -3 -3 -2 -2 -2 -2 -2 -2 -2 -2
2 2 2 1 -0 -1 -1 -1 -2 -2 -2 -3 -2 -2 -2 -2 -3 -3 -3 -4 -5 -4 -4 -4 -4 -5 -4 -4 -4 -4 -4 -4 -4 -4 -4 -3 -3 -3 -2 -2 -2 -2 -2
2 2 2 -1 -1 -1 -2 -2 -2 -2 -2 -2 -2 -2 -3 -3 -3 -4 -4 -6 -6 -6 -5 -5 -5 -5 -6 -6 -7 -7 -6 -6 -5 -5 -4 -4 -3 -4 -4 -4 -4 -4 -4
2 2 1 -1 -1 -2 -2 -2 -2 -2 -3 -3 -3 -3 -3 -3 -4 -5 -5 -6 -7 -7 -6 -6 -5 -5 -5 -6 -7 -7 -8 -8 -8 -8 -7 -6 -6 -6 -6 -6 -6 -6 -6
1 1 -0 -1 -1 -2 -2 -2 -3 -3 -3 -3 -3 -4 -4 -4 -5 -6 -6 -7 -8 -8 -7 -6 -6 -6 -6 -6 -7 -8 -8 -8 -9 -9 -9 -8 -8 -7 -7 -7 -7 -6 -6
2 1 -0 -2 -2 -2 -2 -3 -3 -3 -4 -4 -4 -5 -5 -5 -7 -7 -8 -9 -9 -8 -8 -8 -8 -8 -8 -9 -9 -9 -9 -8 -8 -8 -8 -8 -8 -7 -7 -7 -7 -7 -7
1 0 -1 -2 -2 -2 -2 -3 -3 -4 -4 -4 -5 -6 -7 -7 -8 -8 -9 -10 -10 -10 -9 -9 -9 -9 -9 -9 -9 -9 -9 -8 -8 -8 -8 -8 -8 -8 -8 -8 -8 -8 -7
1 -0 -1 -2 -2 -2 -3 -4 -4 -4 -5 -5 -7 -8 -9 -9 -9 -10 -10 -11 -11 -10 -10 -10 -10 -9 -9 -9 -9 -9 -9 -9 -8 -9 -9 -8 -9 -8 -8 -8 -8 -8 -8
1 -1 -2 -2 -3 -3 -4 -4 -4 -4 -5 -7 -7 -8 -9 -9 -9 -10 -10 -11 -11 -11 -10 -10 -10 -9 -9 -9 -9 -9 -10 -10 -10 -10 -9 -8 -7 -7 -7 -7 -7 -8 -8
-1 -1 -2 -3 -3 -4 -4 -4 -4 -5 -6 -7 -8 -9 -9 -9 -10 -10 -10 -11 -11 -11 -11 -10 -10 -10 -10 -10 -10 -10 -10 -10 -9 -9 -8 -8 -7 -7 -7 -7 -7 -7 -7
-2 -2 -3 -4 -4 -4 -4 -4 -5 -6 -7 -8 -9 -9 -9 -9 -10 -10 -11 -12 -12 -12 -11 -11 -11 -11 -11 -10 -10 -11 -10 -10 -9 -9 -9 -8 -8 -7 -7 -7 -7 -7 -7
-2 -3 -4 -4 -4 -5 -5 -5 -6 -7 -8 -9 -9 -10 -10 -10 -10 -11 -12 -12 -12 -12 -12 -11 -11 -11 -11 -11 -10 -10 -10 -10 -10 -9 -9 -8 -8 -7 -7 -7 -7 -7 -7
-4 -5 -5 -5 -5 -6 -6 -7 -7 -8 -9 -10 -10 -11 -12 -12 -12 -13 -13 -13 -13 -13 -12 -11 -11 -12 -12 -11 -11 -11 -10 -10 -10 -10 -9 -9 -8 -8 -7 -7 -7 -7 -7
-5 -5 -5 -6 -6 -7 -7 -7 -8 -8 -9 -9 -10 -11 -12 -13 -14 -14 -14 -14 -13 -12 -12 -12 -12 -12 -12 -12 -12 -12 -11 -11 -11 -11 -10 -10 -9 -9 -8 -7 -7 -7 -7
-6 -7 -6 -7 -7 -8 -8 -8 -9 -9 -9 -10 -10 -11 -11 -12 -14 -14 -15 -13 -13 -13 -13 -13 -13 -13 -13 -13 -13 -12 -12 -12 -12 -11 -11 -11 -10 -10 -9 -9 -8 -7 -7
-6 -7 -7 -8 -8 -8 -8 -9 -9 -9 -10 -10 -10 -11 -11 -12 -14 -14 -15 -14 -13 -13 -14 -14 -14 -14 -14 -14 -14 -13 -13 -12 -12 -12 -11 -11 -11 -10 -9 -9 -9 -9 -8
-7 -8 -8 -9 -8 -9 -9 -9 -9 -10 -10 -10 -10 -11 -11 -13 -13 -14 -14 -15 -15 -14 -15 -15 -15 -15 -15 -15 -15 -14 -13 -13 -13 -12 -12 -12 -11 -10 -10 -10 -10 -9 -9
-8 -8 -9 -9 -9 -9 -9 -9 -9 -10 -10 -10 -10 -11 -12 -14 -13 -13 -14 -15 -15 -15 -15 -15 -15 -15 -15 -15 -15 -15 -14 -14 -14 -14 -13 -12 -11 -11 -11 -10 -10 -9 -9
-8 -8 -9 -9 -9 -9 -9 -9 -10 -10 -10 -11 -11 -12 -12 -13 -13 -14 -14 -15 -16 -16 -16 -16 -16 -16 -16 -16 -16 -16 -15 -15 -15 -15 -14 -13 -12 -12 -11 -11 -11 -10 -10
-9 -9 -9 -9 -9 -9 -9 -10 -10 -10 -10 -10 -11 -12 -12 -13 -13 -14 -14 -15 -16 -16 -14 -15 -17 -16 -15 -16 -15 -16 -16 -15 -15 -15 -15 -14 -13 -13 -12 -11 -11 -11 -11
-9 -9 -9 -9 -9 -9 -10 -10 -10 -10 -10 -11 -11 -12 -12 -13 -14 -14 -15 -15 -16 -15 -14 -14 -14 -14 -14 -13 -14 -14 -14 -13 -13 -13 -14 -15 -14 -14 -13 -12 -12 -12 -12
-9 -9 -9 -9 -9 -9 -9 -9 -10 -10 -10 -11 -11 -12 -12 -13 -14 -14 -15 -15 -15 -15 -13 -14 -14 -14 -14 -14 -13 -13 -14 -13 -13 -13 -13 -15 -15 -14 -14 -14 -13 -13 -13
-10 -10 -9 -9 -9 -9 -9 -9 -9 -10 -10 -10 -11 -12 -12 -13 -14 -14 -15 -15 -16 -15 -13 -13 -13 -13 -14 -14 -14 -14 -14 -14 -13 -13 -13 -14 -13 -13 -14 -15 -13 -13 -14
-9 -9 -10 -9 -9 -9 -9 -9 -9 -10 -10 -10 -11 -12 -12 -13 -14 -14 -15 -15 -15 -14 -14 -13 -13 -14 -14 -14 -14 -14 -14 -14 -14 -14 -13 -13 -13 -13 -13 -14 -13 -15 -15

GFSGL_850_temp_030.txt.gz
Temp
6 5 4 4 3 3 3 2 2 1 0 -1 -1 -1 -2 -2 -2 -2 -2 -2 -2 -3 -3 -3 -3 -3 -3 -3 -2 -2 -3 -3 -4 -3 -2 -2 -2 -2 -2 -3 -3 -2 -1
4 4 3 3 3 2 2 1 0 -1 -1 -1 -1 -2 -2 -2 -2 -2 -2 -2 -2 -3 -4 -4 -3 -3 -3 -3 -3 -3 -3 -3 -3 -3 -3 -2 -2 -2 -2 -2 -2 -2 -1
3 3 3 2 2 1 0 -0 -0 -1 -1 -1 -2 -2 -2 -2 -2 -2 -2 -3 -3 -3 -3 -4 -4 -4 -4 -4 -4 -4 -4 -4 -4 -4 -4 -3 -3 -3 -3 -2 -2 -2 -2
3 3 2 2 1 0 -1 -1 -1 -1 -2 -2 -2 -2 -2 -2 -3 -3 -3 -3 -4 -4 -4 -5 -5 -5 -5 -5 -5 -5 -5 -5 -5 -5 -5 -5 -4 -4 -3 -3 -3 -3 -3
3 2 2 2 -0 -0 -1 -2 -2 -2 -2 -2 -2 -3 -3 -3 -3 -4 -4 -4 -5 -5 -5 -6 -7 -6 -5 -5 -5 -6 -6 -6 -7 -7 -7 -7 -6 -5 -5 -5 -5 -4 -4
3 2 2 1 -0 -1 -2 -2 -2 -2 -2 -3 -3 -3 -3 -4 -4 -5 -5 -6 -6 -6 -7 -7 -7 -7 -6 -6 -7 -7 -7 -7 -8 -8 -8 -8 -8 -7 -6 -6 -6 -6 -6
3 2 2 0 -1 -1 -2 -2 -2 -3 -3 -3 -3 -4 -4 -5 -5 -6 -6 -7 -7 -8 -9 -9 -8 -8 -8 -8 -8 -8 -8 -8 -8 -8 -8 -8 -8 -7 -7 -7 -7 -7 -7
2 2 2 0 -1 -1 -2 -2 -3 -3 -3 -4 -4 -4 -5 -5 -6 -7 -7 -8 -9 -9 -10 -10 -9 -9 -9 -9 -8 -8 -8 -8 -8 -8 -8 -8 -8 -8 -8 -8 -7 -7 -7
2 2 1 -0 -1 -1 -2 -2 -3 -3 -4 -4 -5 -5 -5 -6 -7 -8 -9 -9 -9 -10 -10 -10 -10 -10 -9 -9 -9 -9 -9 -8 -8 -8 -8 -8 -8 -8 -8 -8 -8 -8 -8
2 1 -0 -2 -2 -2 -3 -4 -4 -4 -4 -5 -5 -6 -6 -8 -8 -9 -9 -10 -10 -10 -10 -10 -10 -10 -10 -9 -9 -10 -10 -9 -9 -9 -9 -8 -8 -8 -8 -8 -8 -8 -8
1 -2 -1 -2 -3 -2 -4 -4 -4 -4 -4 -5 -6 -6 -8 -8 -9 -9 -10 -10 -11 -11 -11 -11 -11 -10 -10 -10 -10 -10 -10 -10 -10 -10 -9 -9 -8 -8 -7 -7 -7 -7 -7
-0 -1 -2 -3 -3 -4 -4 -4 -4 -5 -5 -6 -6 -8 -9 -9 -9 -10 -10 -11 -11 -12 -12 -12 -11 -11 -10 -10 -10 -10 -10 -10 -10 -9 -9 -8 -8 -8 -7 -7 -7 -7 -7
-2 -2 -3 -3 -4 -4 -5 -5 -5 -5 -6 -7 -8 -9 -9 -10 -10 -11 -11 -11 -12 -12 -12 -12 -11 -11 -11 -11 -10 -10 -10 -10 -9 -9 -9 -8 -8 -8 -7 -7 -7 -7 -7
-3 -3 -3 -3 -5 -5 -5 -5 -6 -6 -7 -8 -9 -9 -10 -10 -11 -12 -12 -13 -13 -13 -12 -11 -11 -11 -11 -11 -11 -10 -10 -10 -10 -9 -9 -9 -8 -8 -7 -7 -7 -7 -7
-4 -4 -4 -5 -6 -5 -5 -6 -7 -7 -8 -8 -9 -10 -10 -11 -12 -13 -13 -13 -14 -13 -12 -12 -12 -12 -12 -12 -12 -11 -11 -11 -11 -10 -10 -9 -9 -9 -8 -7 -7 -7 -6
-5 -5 -5 -6 -6 -6 -7 -7 -7 -8 -8 -9 -9 -10 -10 -11 -12 -13 -14 -14 -14 -13 -13 -13 -13 -13 -13 -13 -13 -12 -12 -12 -11 -11 -11 -10 -10 -10 -9 -8 -8 -7 -7
-6 -6 -6 -6 -7 -7 -8 -8 -8 -9 -9 -9 -9 -10 -10 -11 -12 -13 -14 -14 -13 -13 -13 -13 -13 -13 -13 -13 -13 -13 -13 -12 -12 -12 -11 -11 -11 -10 -9 -9 -9 -9 -8
-7 -7 -7 -7 -8 -8 -8 -9 -9 -9 -9 -9 -9 -10 -10 -11 -12 -13 -13 -14 -14 -14 -14 -14 -14 -14 -14 -14 -14 -14 -13 -13 -13 -12 -12 -11 -11 -10 -10 -10 -9 -9 -9
-7 -7 -8 -9 -9 -9 -9 -9 -9 -9 -9 -9 -10 -10 -10 -11 -12 -13 -13 -14 -14 -15 -15 -15 -15 -15 -15 -15 -15 -14 -14 -14 -13 -13 -12 -12 -11 -11 -10 -10 -10 -9 -9
-7 -7 -8 -9 -9 -9 -9 -9 -9 -9 -10 -10 -10 -10 -11 -11 -12 -13 -13 -14 -15 -15 -15 -15 -15 -15 -15 -15 -15 -15 -15 -14 -14 -14 -13 -12 -12 -12 -11 -11 -10 -10 -10
-8 -8 -9 -9 -9 -9 -9 -9 -9 -10 -10 -10 -10 -10 -11 -12 -13 -13 -13 -14 -15 -15 -14 -14 -15 -15 -14 -14 -15 -14 -14 -14 -14 -13 -13 -13 -13 -13 -12 -11 -11 -11 -11
-8 -9 -9 -9 -9 -9 -9 -9 -9 -9 -9 -10 -10 -10 -11 -12 -12 -13 -14 -14 -15 -15 -14 -14 -14 -14 -14 -14 -14 -14 -13 -13 -13 -13 -13 -14 -14 -13 -13 -12 -12 -12 -12
-9 -9 -9 -9 -9 -9 -9 -9 -9 -9 -9 -10 -10 -11 -11 -12 -12 -13 -13 -14 -15 -15 -14 -14 -13 -13 -13 -14 -14 -14 -13 -13 -13 -13 -13 -14 -14 -14 -14 -13 -13 -13 -13
-10 -9 -9 -9 -9 -9 -9 -8 -9 -9 -9 -9 -10 -10 -11 -11 -12 -13 -13 -14 -14 -14 -13 -13 -13 -13 -13 -13 -13 -14 -14 -14 -13 -13 -14 -13 -14 -14 -14 -13 -13 -14 -13
-9 -9 -9 -9 -9 -9 -9 -9 -9 -9 -9 -9 -10 -10 -11 -11 -12 -13 -13 -14 -14 -14 -13 -13 -13 -13 -13 -13 -13 -14 -14 -14 -14 -14 -13 -13 -14 -13 -14 -13 -14 -14 -14
-9 -9 -9 -9 -9 -9 -9 -9 -9 -9 -9 -9 -10 -10 -10 -11 -12 -13 -13 -14 -14 -13 -13 -13 -13 -14 -14 -13 -14 -14 -14 -14 -14 -14 -13 -13 -13 -13 -13 -13 -13 -14 -14

GFSGL_850_temp_033.txt.gz
Temp
6 6 6 4 3 3 3 2 2 1 0 -1 -1 -1 -2 -2 -2 -2 -3 -3 -3 -3 -3 -4 -4 -4 -4 -3 -3 -3 -3 -3 -4 -3 -3 -3 -3 -2 -2 -3 -2 -3 -3
6 5 4 3 2 2 2 2 1 -0 -1 -1 -2 -2 -2 -2 -3 -3 -3 -3 -3 -3 -3 -3 -4 -4 -4 -4 -4 -4 -4 -4 -4 -4 -4 -4 -4 -3 -3 -3 -2 -2 -3
4 4 3 2 2 2 2 1 0 -1 -2 -2 -2 -2 -2 -3 -3 -3 -3 -3 -3 -4 -4 -4 -5 -5 -5 -5 -5 -5 -5 -5 -5 -5 -5 -5 -5 -4 -4 -4 -3 -3 -3
4 3 3 2 2 2 1 0 -0 -1 -2 -2 -3 -3 -3 -3 -3 -3 -4 -4 -4 -5 -5 -6 -6 -6 -6 -6 -6 -6 -6 -6 -6 -5 -5 -6 -5 -5 -5 -5 -4 -4 -4
4 3 3 2 2 2 0 0 -1 -1 -2 -3 -3 -3 -3 -4 -4 -4 -4 -5 -5 -6 -6 -7 -7 -7 -8 -7 -7 -7 -7 -7 -7 -7 -7 -7 -7 -7 -6 -6 -6 -5 -5
3 3 3 2 2 1 0 -1 -1 -2 -3 -3 -3 -3 -4 -4 -4 -5 -5 -6 -6 -7 -8 -8 -8 -8 -9 -8 -8 -8 -8 -8 -8 -8 -8 -8 -8 -8 -8 -8 -7 -7 -6
3 2 2 1 0 -1 -1 -3 -2 -2 -3 -3 -4 -4 -4 -5 -5 -6 -6 -7 -8 -8 -9 -9 -9 -10 -10 -10 -9 -9 -9 -9 -9 -9 -9 -8 -8 -8 -8 -8 -8 -7 -7
3 2 2 0 -1 -2 -3 -2 -2 -3 -4 -4 -4 -4 -5 -5 -6 -6 -8 -8 -9 -9 -9 -10 -10 -10 -10 -10 -10 -10 -9 -9 -9 -9 -9 -8 -9 -8 -8 -8 -8 -8 -8
2 1 0 0 -2 -3 -3 -3 -4 -5 -4 -4 -4 -5 -5 -6 -7 -8 -8 -9 -9 -10 -10 -10 -11 -11 -10 -10 -10 -10 -9 -9 -9 -9 -9 -9 -9 -8 -8 -8 -8 -8 -8
0 -0 -1 -1 -1 -3 -3 -3 -4 -4 -4 -4 -5 -5 -6 -7 -8 -9 -9 -10 -10 -11 -11 -11 -11 -11 -11 -10 -10 -10 -10 -9 -9 -9 -9 -9 -9 -9 -8 -8 -8 -9 -8
-0 -1 -1 -2 -2 -3 -4 -4 -4 -4 -5 -5 -5 -6 -7 -8 -9 -10 -10 -11 -11 -12 -12 -12 -12 -11 -11 -11 -10 -11 -10 -10 -10 -10 -10 -9 -9 -8 -8 -8 -7 -7 -7
-1 -1 -2 -3 -3 -4 -4 -5 -5 -5 -5 -6 -6 -7 -8 -9 -10 -10 -11 -11 -12 -13 -13 -12 -12 -11 -11 -11 -11 -10 -10 -10 -10 -10 -9 -9 -9 -8 -8 -8 -7 -7 -7
-2 -2 -3 -4 -4 -5 -5 -5 -5 -5 -6 -6 -7 -8 -9 -9 -10 -11 -11 -12 -13 -13 -13 -12 -11 -11 -11 -11 -11 -11 -10 -10 -10 -10 -9 -9 -9 -8 -8 -8 -7 -7 -7
-3 -3 -4 -5 -5 -6 -5 -5 -6 -6 -7 -7 -8 -9 -9 -10 -10 -11 -12 -13 -13 -13 -12 -12 -12 -12 -12 -12 -12 -11 -11 -11 -11 -10 -10 -10 -9 -9 -8 -8 -7 -7 -7
-3 -4 -6 -6 -6 -6 -6 -6 -7 -7 -8 -8 -9 -9 -10 -10 -11 -12 -13 -13 -13 -13 -13 -13 -13 -13 -13 -13 -12 -12 -12 -12 -11 -11 -11 -10 -10 -9 -9 -8 -8 -7 -7
-5 -5 -7 -7 -7 -7 -7 -8 -8 -8 -9 -9 -9 -9 -10 -10 -11 -12 -13 -13 -14 -13 -13 -13 -14 -14 -14 -14 -13 -13 -13 -12 -12 -12 -11 -11 -10 -10 -9 -9 -9 -8 -8
-6 -6 -7 -7 -7 -8 -8 -8 -9 -9 -9 -9 -9 -10 -10 -10 -11 -12 -13 -13 -14 -14 -14 -14 -14 -14 -14 -14 -14 -14 -13 -13 -13 -12 -12 -11 -11 -10 -10 -10 -9 -9 -9
-7 -7 -7 -8 -9 -9 -9 -9 -9 -9 -9 -9 -9 -10 -10 -11 -11 -12 -13 -13 -14 -14 -15 -15 -15 -15 -15 -15 -15 -14 -14 -14 -13 -13 -12 -12 -11 -11 -10 -10 -10 -10 -9
-7 -8 -8 -8 -9 -9 -9 -9 -9 -9 -10 -10 -10 -10 -10 -11 -11 -12 -13 -13 -14 -14 -14 -15 -15 -15 -15 -15 -15 -15 -14 -14 -14 -13 -13 -12 -12 -11 -11 -11 -11 -10 -10
-8 -8 -8 -9 -9 -9 -9 -9 -9 -10 -10 -10 -10 -10 -10 -11 -12 -12 -13 -13 -14 -14 -14 -14 -15 -15 -14 -14 -14 -14 -14 -13 -13 -13 -13 -13 -12 -12 -12 -12 -12 -11 -11
-8 -8 -8 -10 -10 -10 -9 -9 -9 -9 -10 -9 -10 -10 -11 -11 -12 -12 -13 -13 -14 -14 -14 -14 -14 -14 -14 -14 -14 -13 -14 -13 -13 -13 -13 -13 -13 -13 -13 -12 -12 -12 -12
-9 -9 -9 -9 -10 -10 -9 -9 -9 -9 -9 -9 -10 -10 -10 -11 -11 -12 -12 -13 -14 -13 -13 -13 -13 -14 -14 -14 -13 -13 -14 -13 -13 -13 -13 -14 -13 -13 -13 -13 -13 -13 -13
-9 -9 -10 -10 -10 -9 -9 -9 -9 -9 -9 -9 -9 -10 -10 -10 -11 -12 -12 -13 -13 -13 -13 -13 -13 -13 -13 -14 -14 -14 -14 -14 -14 -14 -13 -13 -13 -13 -14 -13 -14 -13 -13
-9 -9 -10 -10 -10 -9 -9 -9 -9 -9 -9 -9 -9 -10 -10 -10 -11 -12 -12 -13 -13 -13 -13 -13 -13 -13 -13 -13 -14 -14 -14 -14 -14 -14 -14 -14 -13 -13 -13 -13 -13 -13 -13
-9 -9 -9 -9 -9 -9 -9 -9 -9 -9 -9 -9 -9 -10 -10 -10 -11 -11 -12 -13 -13 -13 -13 -13 -13 -13 -13 -13 -13 -14 -14 -14 -14 -14 -14 -14 -13 -14 -13 -13 -13 -13 -13
-8 -9 -9 -9 -9 -9 -9 -9 -10 -9 -9 -9 -10 -10 -10 -11 -11 -11 -12 -13 -13 -13 -13 -13 -14 -14 -14 -14 -14 -14 -14 -14 -14 -14 -14 -14 -13 -14 -14 -14 -13 -13 -13

GFSGL_850_temp_039.txt.gz
Temp
5 5 5 4 4 3 3 2 2 2 1 1 1 0 -1 -2 -2 -2 -3 -3 -3 -3 -4 -4 -4 -5 -6 -6 -5 -5 -5 -5 -6 -5 -5 -5 -5 -5 -5 -5 -4 -4 -4
5 5 4 4 3 3 2 2 2 1 1 -0 -1 -2 -2 -2 -2 -3 -3 -4 -4 -4 -5 -5 -5 -5 -5 -6 -6 -6 -6 -6 -7 -7 -6 -6 -6 -6 -6 -5 -5 -5 -5
4 4 3 3 3 2 2 2 1 0 -1 -1 -2 -2 -3 -3 -3 -4 -4 -4 -5 -5 -5 -6 -6 -6 -7 -7 -7 -8 -8 -8 -8 -8 -7 -7 -7 -7 -6 -6 -6 -6 -5
3 3 3 3 2 2 1 1 0 -0 -1 -2 -3 -4 -4 -4 -4 -4 -4 -5 -5 -6 -6 -6 -7 -8 -8 -9 -9 -9 -9 -9 -9 -8 -8 -8 -8 -7 -7 -7 -6 -6 -6
3 3 3 2 2 1 1 -0 -1 -1 -2 -2 -3 -4 -4 -5 -5 -5 -5 -6 -6 -6 -7 -8 -8 -9 -9 -10 -10 -10 -10 -10 -10 -10 -9 -9 -8 -8 -8 -7 -7 -7 -6
3 2 1 1 0 -0 -1 -1 -1 -2 -2 -3 -4 -4 -5 -5 -5 -5 -6 -6 -7 -8 -8 -9 -9 -10 -10 -10 -10 -10 -10 -10 -10 -10 -10 -10 -9 -9 -8 -8 -8 -8 -8
1 1 0 -0 -1 -1 -1 -2 -2 -3 -3 -4 -4 -5 -6 -5 -5 -6 -7 -7 -8 -9 -9 -10 -10 -11 -11 -11 -11 -11 -11 -11 -10 -10 -10 -10 -10 -9 -9 -9 -9 -9 -8
0 -0 -1 -1 -1 -2 -2 -3 -4 -4 -4 -5 -5 -5 -5 -6 -7 -7 -7 -8 -9 -9 -9 -10 -11 -11 -11 -12 -12 -11 -11 -11 -10 -10 -10 -10 -10 -10 -10 -9 -9 -9 -8
-0 -1 -1 -2 -2 -2 -2 -4 -4 -4 -5 -5 -6 -6 -6 -7 -7 -8 -9 -9 -9 -9 -9 -10 -11 -12 -11 -12 -11 -11 -11 -10 -10 -10 -10 -10 -10 -10 -9 -9 -9 -10 -9
-1 -2 -2 -2 -3 -3 -3 -4 -4 -4 -5 -6 -6 -7 -7 -7 -8 -9 -10 -10 -9 -10 -10 -11 -12 -12 -12 -11 -11 -11 -11 -11 -10 -10 -10 -10 -10 -10 -10 -9 -9 -9 -9
-3 -3 -3 -3 -4 -4 -4 -5 -5 -5 -6 -7 -7 -7 -8 -8 -9 -10 -10 -10 -11 -12 -12 -12 -12 -12 -12 -12 -12 -12 -11 -11 -10 -10 -10 -10 -10 -10 -9 -9 -9 -9 -9
-4 -4 -4 -4 -4 -4 -5 -6 -6 -6 -7 -7 -7 -8 -8 -9 -10 -10 -10 -11 -12 -13 -13 -13 -13 -13 -13 -12 -12 -12 -12 -11 -11 -10 -10 -10 -10 -9 -9 -8 -8 -8 -8
-5 -5 -5 -5 -5 -5 -6 -6 -7 -7 -7 -8 -8 -8 -9 -9 -10 -10 -10 -11 -12 -13 -13 -13 -13 -13 -13 -13 -13 -13 -12 -12 -11 -11 -11 -10 -10 -10 -9 -9 -8 -8 -7
-6 -6 -6 -6 -7 -7 -7 -7 -7 -8 -8 -8 -9 -9 -9 -10 -10 -10 -11 -12 -12 -12 -13 -13 -13 -13 -13 -13 -13 -13 -13 -12 -12 -12 -11 -11 -11 -10 -9 -9 -8 -8 -8
-7 -7 -6 -7 -7 -7 -7 -8 -8 -9 -9 -9 -9 -9 -10 -10 -10 -10 -12 -12 -12 -12 -13 -13 -13 -13 -13 -13 -13 -13 -13 -13 -13 -12 -12 -11 -11 -10 -10 -9 -9 -9 -8
-7 -7 -7 -7 -8 -8 -9 -9 -9 -9 -9 -9 -10 -10 -10 -10 -10 -11 -12 -12 -12 -12 -13 -13 -13 -14 -14 -14 -14 -14 -14 -13 -13 -13 -12 -12 -11 -11 -10 -10 -10 -9 -9
-7 -7 -7 -7 -8 -9 -10 -10 -10 -10 -10 -10 -10 -10 -10 -10 -10 -11 -12 -12 -12 -13 -12 -13 -13 -14 -14 -14 -14 -14 -14 -14 -14 -13 -13 -12 -11 -11 -11 -10 -10 -10 -10
-7 -7 -7 -8 -8 -9 -10 -10 -10 -10 -10 -10 -10 -10 -10 -10 -11 -11 -12 -12 -13 -13 -13 -13 -13 -13 -14 -14 -14 -14 -14 -13 -13 -13 -13 -13 -12 -12 -11 -11 -11 -11 -10
-8 -8 -8 -8 -8 -9 -10 -10 -10 -10 -10 -10 -10 -10 -10 -10 -11 -11 -12 -12 -13 -13 -13 -13 -13 -13 -13 -14 -14 -14 -14 -14 -13 -14 -13 -13 -13 -12 -12 -12 -12 -12 -11
-8 -9 -9 -9 -9 -10 -10 -10 -10 -10 -10 -10 -10 -10 -10 -10 -11 -11 -11 -12 -13 -13 -13 -13 -13 -13 -13 -13 -13 -13 -13 -13 -13 -13 -13 -13 -13 -13 -13 -13 -13 -12 -12
-8 -8 -9 -10 -10 -10 -10 -10 -10 -10 -10 -10 -10 -10 -10 -10 -10 -11 -11 -12 -12 -13 -13 -13 -13 -13 -13 -13 -13 -13 -13 -13 -13 -13 -13 -13 -13 -13 -14 -13 -13 -13 -13
-8 -8 -9 -9 -9 -10 -10 -10 -10 -10 -10 -10 -10 -9 -10 -10 -10 -10 -11 -12 -12 -13 -13 -13 -13 -13 -13 -13 -13 -13 -13 -13 -13 -13 -13 -13 -13 -13 -13 -13 -14 -13 -13
-8 -9 -9 -9 -9 -10 -10 -10 -10 -10 -10 -10 -10 -10 -10 -10 -10 -10 -10 -11 -12 -12 -13 -13 -13 -13 -13 -13 -13 -13 -13 -13 -13 -13 -13 -13 -13 -13 -13 -13 -13 -13 -13
-8 -9 -9 -9 -9 -9 -9 -9 -10 -10 -10 -10 -10 -10 -10 -10 -10 -10 -10 -11 -11 -12 -12 -12 -13 -13 -13 -13 -13 -13 -13 -13 -13 -13 -13 -13 -13 -13 -13 -13 -13 -13 -13
-7 -7 -8 -8 -8 -8 -9 -9 -9 -9 -10 -10 -10 -10 -10 -10 -10 -10 -10 -11 -11 -11 -12 -12 -13 -13 -13 -13 -14 -14 -14 -14 -13 -13 -13 -13 -13 -13 -13 -13 -13 -13 -13
-7 -7 -7 -8 -8 -8 -8 -8 -9 -9 -10 -10 -10 -10 -10 -10 -10 -10 -10 -11 -11 -11 -12 -12 -12 -13 -13 -13 -13 -14 -14 -13 -13 -13 -14 -13 -13 -14 -14 -14 -14 -14 -14

GFSGL_850_temp_042.txt.gz
Temp
5 5 4 4 3 3 2 2 2 1 1 0 -0 -0 -1 -1 -2 -3 -3 -3 -4 -4 -4 -5 -5 -5 -5 -5 -6 -6 -6 -6 -7 -6 -6 -6 -6 -6 -6 -6 -6 -5 -5
4 4 4 3 3 2 2 2 1 1 0 -0 -1 -1 -2 -3 -3 -4 -4 -4 -4 -5 -5 -5 -6 -6 -6 -6 -7 -7 -7 -8 -8 -8 -7 -7 -7 -7 -7 -7 -6 -6 -6
4 3 3 3 2 2 1 1 0 -0 -0 -1 -1 -2 -2 -3 -4 -4 -5 -5 -5 -5 -6 -6 -6 -7 -7 -8 -8 -9 -9 -9 -9 -9 -9 -9 -8 -8 -8 -7 -7 -6 -6
3 3 3 2 1 1 0 -0 -0 -1 -1 -1 -2 -2 -3 -4 -5 -5 -6 -5 -5 -6 -6 -6 -7 -8 -9 -9 -10 -10 -10 -10 -10 -10 -10 -10 -9 -9 -9 -8 -8 -7 -7
2 2 1 1 0 -0 -1 -1 -1 -2 -2 -2 -3 -4 -4 -4 -5 -6 -6 -6 -6 -6 -7 -7 -8 -9 -10 -10 -11 -11 -11 -11 -11 -11 -10 -10 -10 -10 -9 -9 -9 -8 -7
1 1 0 -0 -1 -1 -2 -2 -2 -3 -4 -4 -3 -4 -5 -5 -6 -6 -6 -6 -7 -7 -8 -8 -9 -9 -10 -11 -11 -11 -12 -12 -11 -11 -11 -11 -10 -10 -10 -10 -9 -9 -9
0 -0 -0 -1 -2 -2 -2 -2 -2 -4 -4 -5 -5 -5 -5 -5 -6 -6 -6 -7 -7 -8 -9 -9 -9 -10 -11 -11 -11 -11 -11 -11 -11 -11 -11 -10 -10 -10 -10 -10 -10 -10 -9
-0 -1 -2 -2 -2 -3 -3 -3 -3 -5 -5 -5 -5 -5 -5 -6 -7 -7 -7 -8 -8 -8 -9 -9 -10 -11 -11 -12 -12 -12 -11 -11 -11 -11 -11 -11 -10 -10 -10 -10 -10 -10 -9
-1 -1 -2 -3 -3 -3 -4 -4 -4 -4 -4 -5 -5 -6 -6 -7 -7 -8 -8 -9 -9 -9 -9 -10 -11 -12 -12 -12 -11 -12 -11 -11 -11 -11 -10 -10 -11 -11 -11 -11 -10 -10 -9
-0 -1 -2 -3 -4 -4 -4 -4 -5 -5 -5 -5 -6 -7 -7 -7 -8 -8 -9 -10 -10 -10 -10 -11 -12 -12 -12 -12 -12 -12 -12 -12 -11 -11 -10 -10 -10 -10 -10 -11 -10 -10 -10
-1 -2 -3 -4 -5 -5 -5 -6 -6 -6 -6 -6 -7 -7 -8 -8 -9 -9 -10 -10 -10 -11 -11 -12 -12 -13 -13 -13 -13 -12 -12 -12 -12 -11 -11 -10 -10 -10 -9 -9 -10 -10 -10
-2 -3 -4 -5 -5 -6 -6 -6 -6 -6 -7 -7 -7 -8 -8 -9 -9 -10 -10 -11 -11 -12 -12 -12 -13 -14 -14 -13 -13 -13 -13 -12 -12 -12 -11 -11 -10 -10 -9 -9 -9 -9 -9
-3 -4 -5 -6 -6 -6 -7 -7 -7 -7 -7 -8 -8 -9 -9 -9 -10 -10 -11 -10 -11 -11 -12 -12 -13 -13 -13 -13 -13 -13 -13 -13 -12 -12 -12 -11 -11 -10 -10 -9 -9 -8 -8
-4 -6 -7 -7 -7 -7 -7 -7 -7 -8 -8 -9 -9 -9 -9 -10 -10 -10 -10 -11 -11 -11 -11 -12 -13 -13 -13 -13 -13 -13 -13 -13 -13 -13 -12 -12 -11 -10 -10 -9 -9 -8 -8
-5 -7 -7 -7 -7 -7 -7 -8 -8 -9 -9 -9 -10 -10 -10 -10 -10 -10 -11 -11 -11 -11 -11 -12 -12 -12 -13 -12 -13 -13 -13 -13 -13 -13 -12 -12 -11 -11 -10 -10 -9 -9 -9
-6 -7 -7 -7 -7 -8 -8 -9 -10 -10 -10 -10 -10 -10 -10 -10 -10 -10 -11 -11 -12 -12 -12 -12 -12 -12 -13 -13 -13 -13 -13 -13 -13 -13 -13 -12 -12 -11 -11 -10 -10 -10 -9
-7 -7 -7 -8 -8 -8 -9 -9 -10 -10 -10 -10 -10 -10 -10 -10 -10 -11 -11 -11 -12 -12 -12 -12 -12 -12 -12 -13 -13 -13 -13 -13 -13 -14 -13 -13 -12 -12 -11 -11 -11 -10 -10
-7 -8 -8 -8 -8 -8 -8 -9 -10 -10 -10 -10 -10 -10 -10 -10 -10 -11 -11 -11 -12 -12 -12 -12 -12 -12 -13 -13 -13 -13 -13 -13 -13 -13 -13 -13 -13 -12 -12 -12 -12 -11 -11
-8 -8 -8 -9 -9 -9 -9 -10 -10 -10 -10 -10 -10 -10 -10 -10 -10 -11 -11 -11 -12 -12 -12 -12 -12 -12 -12 -13 -13 -13 -13 -13 -13 -14 -14 -13 -13 -13 -13 -13 -13 -13 -12
-8 -8 -9 -9 -9 -10 -10 -10 -10 -10 -10 -10 -10 -10 -10 -10 -10 -10 -11 -11 -11 -12 -12 -12 -12 -12 -12 -13 -13 -13 -13 -13 -13 -13 -14 -14 -14 -14 -13 -13 -13 -13 -13
-8 -8 -8 -9 -8 -9 -10 -10 -10 -10 -10 -10 -10 -10 -10 -10 -10 -10 -10 -11 -11 -11 -11 -12 -12 -12 -12 -13 -13 -13 -13 -13 -13 -13 -13 -13 -13 -13 -14 -14 -13 -13 -13
-8 -8 -8 -8 -9 -9 -9 -10 -10 -10 -10 -10 -10 -10 -10 -10 -10 -10 -10 -10 -11 -11 -11 -11 -12 -12 -12 -13 -13 -13 -13 -13 -13 -13 -13 -13 -13 -13 -13 -13 -13 -13 -13
-7 -7 -8 -8 -9 -9 -9 -9 -9 -10 -10 -10 -10 -10 -10 -10 -10 -10 -10 -10 -11 -11 -11 -12 -12 -12 -12 -13 -13 -13 -13 -13 -13 -13 -13 -13 -13 -13 -13 -13 -13 -13 -13
-8 -7 -7 -7 -8 -8 -8 -8 -8 -9 -9 -10 -10 -10 -10 -10 -10 -10 -10 -10 -10 -11 -11 -11 -12 -12 -12 -13 -13 -13 -14 -14 -14 -13 -13 -13 -13 -13 -13 -13 -13 -13 -13
-8 -8 -7 -7 -7 -7 -7 -8 -8 -8 -8 -9 -9 -10 -10 -10 -10 -10 -10 -10 -10 -11 -11 -11 -11 -12 -12 -13 -13 -13 -14 -14 -13 -13 -13 -13 -13 -13 -13 -13 -13 -13 -13
-8 -8 -8 -8 -7 -7 -7 -7 -8 -7 -8 -8 -9 -9 -10 -10 -10 -10 -10 -10 -10 -10 -11 -11 -11 -12 -12 -13 -13 -13 -14 -14 -13 -13 -14 -13 -14 -14 -14 -14 -14 -14 -13

GFSGL_850_temp_045.txt.gz
Temp
5 5 4 4 3 3 3 2 2 1 1 0 0 -0 -1 -1 -2 -2 -3 -4 -4 -4 -4 -5 -5 -5 -6 -6 -6 -7 -8 -8 -7 -7 -7 -7 -7 -7 -7 -7 -6 -6 -6
5 4 4 3 3 3 2 1 1 0 -0 -1 -1 -1 -2 -2 -3 -3 -4 -4 -5 -5 -5 -5 -6 -6 -6 -7 -8 -8 -9 -9 -9 -8 -8 -8 -7 -8 -8 -7 -7 -6 -6
4 4 4 3 2 1 0 -0 -0 -1 -1 -1 -2 -2 -2 -3 -4 -4 -5 -5 -5 -5 -6 -6 -6 -7 -8 -8 -9 -9 -9 -9 -9 -9 -9 -8 -8 -9 -8 -8 -7 -7 -7
4 3 2 1 0 -0 -1 -1 -1 -1 -1 -2 -2 -3 -3 -4 -4 -5 -5 -5 -5 -6 -6 -6 -7 -8 -9 -9 -10 -10 -10 -10 -10 -10 -9 -9 -9 -9 -9 -9 -8 -8 -7
2 1 1 0 -0 -1 -1 -2 -2 -2 -2 -3 -3 -3 -3 -4 -5 -5 -5 -5 -6 -6 -7 -7 -7 -8 -8 -9 -11 -10 -10 -11 -11 -10 -10 -10 -10 -9 -9 -9 -9 -9 -8
1 1 -0 -1 -1 -2 -2 -2 -3 -3 -3 -4 -4 -4 -5 -5 -5 -5 -6 -6 -6 -7 -7 -7 -8 -8 -10 -10 -11 -11 -12 -12 -11 -11 -10 -10 -10 -9 -10 -10 -10 -9 -9
0 0 -0 -1 -2 -2 -3 -3 -3 -3 -4 -5 -5 -5 -5 -5 -6 -6 -6 -7 -7 -8 -8 -8 -8 -10 -11 -12 -12 -12 -11 -11 -11 -11 -11 -11 -10 -10 -10 -10 -9 -10 -9
0 0 -0 -1 -2 -3 -4 -4 -4 -4 -4 -4 -5 -5 -6 -6 -6 -7 -7 -7 -8 -8 -8 -9 -10 -12 -12 -12 -12 -11 -12 -11 -11 -11 -11 -11 -10 -10 -10 -10 -10 -10 -10
0 -0 -1 -1 -2 -4 -4 -4 -4 -4 -5 -5 -5 -6 -6 -7 -7 -7 -8 -8 -8 -8 -9 -10 -12 -13 -13 -13 -12 -12 -12 -12 -11 -12 -11 -11 -10 -10 -10 -10 -10 -10 -10
-1 -1 -1 -2 -3 -4 -5 -5 -5 -6 -6 -6 -6 -6 -7 -7 -8 -8 -8 -9 -9 -9 -11 -12 -13 -13 -13 -13 -13 -13 -13 -12 -12 -12 -12 -11 -11 -10 -10 -10 -10 -10 -10
-1 -1 -2 -3 -3 -4 -5 -6 -6 -6 -6 -6 -7 -7 -7 -8 -8 -8 -9 -9 -10 -12 -12 -12 -13 -12 -14 -14 -14 -14 -13 -13 -12 -13 -12 -12 -11 -11 -10 -9 -9 -10 -10
-2 -2 -2 -3 -3 -4 -6 -6 -7 -7 -7 -7 -7 -7 -8 -8 -8 -9 -9 -10 -10 -11 -11 -12 -12 -12 -12 -13 -13 -14 -13 -13 -13 -13 -13 -12 -12 -11 -10 -10 -9 -9 -9
-2 -2 -3 -4 -5 -6 -6 -7 -7 -7 -7 -7 -8 -8 -8 -9 -9 -9 -10 -10 -10 -11 -11 -11 -11 -12 -12 -13 -13 -13 -13 -13 -13 -13 -13 -13 -12 -11 -10 -10 -9 -9 -8
-2 -4 -5 -5 -6 -6 -7 -7 -7 -8 -8 -8 -9 -9 -9 -9 -9 -10 -10 -10 -10 -11 -11 -11 -11 -12 -12 -12 -12 -12 -13 -13 -13 -13 -13 -12 -11 -11 -10 -10 -9 -9 -8
-4 -6 -6 -6 -7 -7 -7 -8 -8 -8 -9 -9 -9 -10 -10 -10 -10 -10 -10 -11 -11 -11 -11 -11 -11 -11 -11 -12 -12 -12 -13 -13 -13 -13 -13 -12 -12 -11 -11 -10 -10 -9 -9
-7 -7 -7 -7 -7 -8 -8 -8 -8 -9 -9 -10 -10 -10 -10 -10 -10 -10 -10 -11 -11 -11 -11 -11 -11 -11 -12 -12 -12 -12 -13 -13 -13 -13 -13 -13 -12 -12 -11 -11 -11 -10 -10
-7 -8 -8 -8 -8 -8 -8 -9 -9 -9 -9 -10 -10 -10 -10 -10 -10 -10 -11 -11 -11 -11 -11 -11 -11 -12 -12 -12 -12 -13 -13 -13 -13 -13 -13 -13 -13 -13 -12 -12 -12 -12 -11
-8 -8 -8 -8 -8 -8 -9 -9 -9 -10 -10 -10 -10 -10 -10 -10 -10 -10 -11 -11 -11 -11 -11 -12 -11 -12 -12 -12 -12 -12 -13 -13 -13 -13 -13 -13 -13 -13 -13 -13 -13 -12 -12
-8 -7 -8 -8 -9 -9 -9 -9 -9 -10 -10 -10 -10 -10 -10 -10 -10 -10 -10 -11 -11 -11 -11 -12 -12 -12 -12 -12 -12 -12 -13 -13 -13 -13 -13 -13 -13 -13 -13 -13 -13 -13 -12
-8 -8 -8 -8 -9 -9 -9 -9 -9 -10 -10 -10 -10 -10 -10 -11 -10 -10 -10 -10 -10 -11 -11 -11 -12 -12 -12 -12 -12 -13 -13 -13 -13 -13 -13 -13 -14 -14 -14 -14 -14 -14 -13
-7 -8 -8 -8 -8 -8 -8 -9 -9 -9 -10 -10 -10 -10 -10 -10 -10 -10 -10 -10 -10 -10 -11 -11 -11 -11 -12 -12 -12 -12 -13 -13 -13 -13 -13 -13 -13 -13 -14 -14 -14 -14 -13
-7 -7 -7 -7 -7 -8 -8 -9 -9 -9 -9 -9 -10 -10 -10 -10 -10 -10 -10 -10 -10 -10 -11 -11 -11 -11 -12 -12 -12 -13 -13 -13 -13 -13 -13 -13 -13 -13 -13 -13 -13 -13 -13
-7 -7 -8 -8 -8 -8 -8 -8 -8 -8 -9 -9 -9 -9 -10 -10 -10 -10 -10 -10 -10 -10 -10 -11 -11 -11 -12 -12 -12 -13 -13 -13 -13 -13 -13 -13 -13 -13 -13 -13 -13 -13 -13
-8 -8 -8 -8 -8 -8 -8 -8 -8 -8 -8 -8 -8 -8 -9 -9 -10 -10 -10 -10 -10 -10 -10 -10 -11 -11 -11 -12 -12 -13 -13 -13 -13 -13 -13 -13 -13 -13 -14 -14 -13 -13 -13
-9 -9 -9 -9 -8 -8 -8 -8 -8 -8 -8 -8 -8 -8 -8 -8 -9 -10 -10 -10 -10 -10 -10 -10 -11 -11 -11 -12 -12 -13 -13 -13 -13 -13 -13 -13 -13 -13 -13 -14 -14 -13 -13
-9 -9 -9 -9 -9 -9 -9 -9 -9 -8 -8 -8 -8 -8 -8 -8 -8 -9 -10 -10 -10 -10 -10 -10 -10 -11 -11 -12 -12 -13 -13 -13 -13 -13 -13 -14 -14 -14 -14 -14 -14 -14 -14